M I D A S
Marine Information and Data Acquisition System
Tripno 2268 of the Zeeleeuw from 2012-02-17 07:27:53 to 2012-02-17 15:06:24
Back to CruiseResearch ActivitiesStationsMapUnderway DataData graphs

EquipmentUnitsComment
TimeDGPSUTC
LatitudeDGPSDM.mWGS84
LongitudeDGPSDM.mWGS84
TemperatureSBE03/SBE38deg celciusITS90
ConductivitySBE21S/mITS90
SalinitySBE21 Practical Salinity Units
ChlorophylAChelsea fluorimeterg/lCalibrated in Aceton
Missing or incorrect values are displayed as -999
Sea surface data collected by the RV Zeeleeuw from 2012-02-17 07:02:22 to 2012-02-17 16:13:58
                                                                                    Next 1000 lines
Time Latitude Longitude Temperature Conductivity Salinity ChlorophylA
2012-02-17 07:02:32 51°13.636 2°56.018 11.0518 0.065535 0.347864 -1.326982
2012-02-17 07:02:38 51°13.635 2°56.018 11.0499 0.065638 0.348426 -1.326982
2012-02-17 07:02:42 51°13.635 2°56.018 11.0507 0.065535 0.347858 -1.326982
2012-02-17 07:02:47 51°13.636 2°56.018 11.0536 0.065638 0.348426 -1.326982
2012-02-17 07:02:52 51°13.636 2°56.018 11.0533 0.065535 0.34787 -1.326982
2012-02-17 07:02:57 51°13.636 2°56.018 11.0531 0.065638 0.348432 -1.326982
2012-02-17 07:03:02 51°13.635 2°56.018 11.0522 0.065638 0.348432 -1.326982
2012-02-17 07:03:06 51°13.636 2°56.018 11.0529 0.065638 0.348432 -1.326982
2012-02-17 07:03:12 51°13.636 2°56.018 11.0518 0.065535 0.347864 -1.326982
2012-02-17 07:03:18 51°13.636 2°56.018 11.0489 0.065535 0.347858 -1.326982
2012-02-17 07:03:23 51°13.636 2°56.018 11.0487 0.065535 0.347852 -1.326982
2012-02-17 07:03:27 51°13.636 2°56.019 11.0504 0.065535 0.347846 -1.326982
2012-02-17 07:03:33 51°13.636 2°56.019 11.052 0.065535 0.347846 -1.326982
2012-02-17 07:03:38 51°13.636 2°56.019 11.056 0.065638 0.348409 -1.326982
2012-02-17 07:03:43 51°13.636 2°56.019 11.0536 0.065638 0.348409 -1.326982
2012-02-17 07:03:48 51°13.636 2°56.019 11.0556 0.065638 0.348409 -1.326982
2012-02-17 07:03:53 51°13.636 2°56.019 11.0563 0.065638 0.348415 -1.326982
2012-02-17 07:03:58 51°13.636 2°56.019 11.0565 0.065535 0.347852 -1.326982
2012-02-17 07:04:02 51°13.636 2°56.019 11.0608 0.065535 0.347852 -1.326982
2012-02-17 07:04:08 51°13.636 2°56.019 11.0555 0.065638 0.348403 -1.326982
2012-02-17 07:04:12 51°13.636 2°56.019 11.0472 0.065535 0.347835 -1.326982
2012-02-17 07:04:18 51°13.635 2°56.019 11.0344 0.065535 0.347829 -1.326982
2012-02-17 07:04:22 51°13.635 2°56.018 11.0369 0.065638 0.348391 -1.326982
2012-02-17 07:04:27 51°13.635 2°56.019 11.0432 0.065638 0.348391 -1.326982
2012-02-17 07:04:33 51°13.636 2°56.019 11.0502 0.065638 0.348391 -1.326982
2012-02-17 07:04:38 51°13.636 2°56.019 11.0555 0.065638 0.348403 -1.326982
2012-02-17 07:04:42 51°13.636 2°56.019 11.0576 0.065535 0.347846 -1.326982
2012-02-17 07:04:47 51°13.636 2°56.019 11.0588 0.065638 0.348397 -1.326982
2012-02-17 07:04:53 51°13.636 2°56.019 11.0626 0.065638 0.348391 -1.326982
2012-02-17 07:04:58 51°13.636 2°56.019 11.0641 0.065638 0.348373 -1.326982
2012-02-17 07:05:02 51°13.636 2°56.019 11.0646 0.065638 0.348373 -1.326982
2012-02-17 07:05:07 51°13.636 2°56.019 11.0637 0.065638 0.348361 -1.326982
2012-02-17 07:05:12 51°13.637 2°56.019 11.0638 0.065638 0.348361 -1.326982
2012-02-17 07:05:18 51°13.637 2°56.019 11.0689 0.065535 0.347805 -1.326982
2012-02-17 07:05:23 51°13.637 2°56.019 11.0695 0.065535 0.347817 -1.326982
2012-02-17 07:05:27 51°13.637 2°56.019 11.072 0.065535 0.347817 -1.326982
2012-02-17 07:05:32 51°13.637 2°56.019 11.071 0.065535 0.347817 -1.326982
2012-02-17 07:05:37 51°13.636 2°56.019 11.0729 0.065535 0.347817 -1.326982
2012-02-17 07:05:42 51°13.636 2°56.019 11.0721 0.065535 0.347811 -1.326982
2012-02-17 07:05:48 51°13.636 2°56.019 11.0709 0.065535 0.347805 -1.326982
2012-02-17 07:05:52 51°13.636 2°56.019 11.0691 0.065638 0.348361 -1.326982
2012-02-17 07:05:57 51°13.636 2°56.019 11.0675 0.065535 0.347787 -1.326982
2012-02-17 07:06:03 51°13.636 2°56.019 11.064 0.065535 0.347787 -1.326982
2012-02-17 07:06:08 51°13.636 2°56.019 11.0664 0.065535 0.347787 -1.326982
2012-02-17 07:06:12 51°13.636 2°56.019 11.0674 0.065535 0.347787 -1.326982
2012-02-17 07:06:18 51°13.636 2°56.019 11.0675 0.065638 0.348355 -1.326982
2012-02-17 07:06:22 51°13.636 2°56.02 11.0679 0.065535 0.347793 -1.326982
2012-02-17 07:06:28 51°13.636 2°56.019 11.0648 0.065638 0.348355 -1.326982
2012-02-17 07:06:32 51°13.636 2°56.018 11.0654 0.065638 0.348355 -1.326982
2012-02-17 07:06:37 51°13.636 2°56.019 11.062 0.065535 0.347787 -1.326982
2012-02-17 07:06:42 51°13.636 2°56.019 11.0638 0.065535 0.347781 -1.326982
2012-02-17 07:06:47 51°13.637 2°56.019 11.0652 0.065638 0.348338 -1.326982
2012-02-17 07:06:52 51°13.637 2°56.019 11.0645 0.065535 0.34777 -1.326982
2012-02-17 07:06:57 51°13.636 2°56.019 11.0648 0.065638 0.348338 -1.326982
2012-02-17 07:07:02 51°13.636 2°56.018 11.0664 0.065638 0.348338 -1.326982
2012-02-17 07:07:07 51°13.637 2°56.018 11.0679 0.065535 0.34777 -1.326982
2012-02-17 07:07:12 51°13.636 2°56.018 11.0701 0.065535 0.347776 -1.326982
2012-02-17 07:07:17 51°13.636 2°56.018 11.0714 0.065535 0.34777 -1.326982
2012-02-17 07:07:22 51°13.637 2°56.018 11.0717 0.065638 0.348326 -1.326982
2012-02-17 07:07:27 51°13.637 2°56.018 11.0726 0.065535 0.347764 -1.326982
2012-02-17 07:07:32 51°13.636 2°56.019 11.0736 0.065535 0.347764 -1.326982
2012-02-17 07:07:37 51°13.636 2°56.018 11.0743 0.065638 0.348326 -1.326982
2012-02-17 07:07:42 51°13.636 2°56.018 11.0766 0.065638 0.348326 -1.326982
2012-02-17 07:07:47 51°13.636 2°56.018 11.0784 0.065638 0.348326 -1.326982
2012-02-17 07:07:52 51°13.636 2°56.018 11.0794 0.065638 0.34832 -1.326982
2012-02-17 07:07:57 51°13.636 2°56.018 11.0803 0.065535 0.347752 -1.326982
2012-02-17 07:08:02 51°13.636 2°56.019 11.0804 0.065535 0.347752 -1.326982
2012-02-17 07:08:07 51°13.637 2°56.018 11.0793 0.065638 0.348308 -1.326982
2012-02-17 07:08:12 51°13.636 2°56.019 11.0789 0.065638 0.348302 -1.326982
2012-02-17 07:08:18 51°13.637 2°56.019 11.0772 0.065638 0.348302 -1.326982
2012-02-17 07:08:22 51°13.637 2°56.019 11.0781 0.065638 0.348308 -1.326982
2012-02-17 07:08:28 51°13.637 2°56.019 11.0778 0.065638 0.348338 -1.326982
2012-02-17 07:08:32 51°13.637 2°56.019 11.0754 0.065638 0.348338 -1.326982
2012-02-17 07:08:37 51°13.637 2°56.019 11.0729 0.065535 0.347793 -1.326982
2012-02-17 07:08:42 51°13.637 2°56.019 11.0737 0.065638 0.348344 -1.326982
2012-02-17 07:08:47 51°13.637 2°56.019 11.076 0.065535 0.347752 -1.326982
2012-02-17 07:08:52 51°13.637 2°56.019 11.0776 0.065535 0.347711 -1.326982
2012-02-17 07:08:57 51°13.637 2°56.019 11.0785 0.065535 0.347693 -1.326982
2012-02-17 07:09:03 51°13.637 2°56.019 11.0791 0.065535 0.347693 -1.326982
2012-02-17 07:09:07 51°13.637 2°56.019 11.0778 0.065535 0.347687 -1.326982
2012-02-17 07:09:13 51°13.637 2°56.019 11.0745 0.065535 0.347705 -1.326982
2012-02-17 07:09:18 51°13.637 2°56.019 11.0755 0.065535 0.347728 -1.326982
2012-02-17 07:09:23 51°13.637 2°56.019 11.0776 0.065535 0.347746 -1.326982
2012-02-17 07:09:27 51°13.637 2°56.019 11.0776 0.065638 0.348314 -1.326982
2012-02-17 07:09:32 51°13.637 2°56.019 11.0794 0.065638 0.348314 -1.326982
2012-02-17 07:09:38 51°13.637 2°56.019 11.0798 0.065535 0.34774 -1.326982
2012-02-17 07:09:43 51°13.637 2°56.019 11.0797 0.065535 0.347722 -1.326982
2012-02-17 07:09:47 51°13.637 2°56.019 11.0799 0.065638 0.348273 -1.326982
2012-02-17 07:09:52 51°13.636 2°56.02 11.08 0.065535 0.347705 -1.326982
2012-02-17 07:09:57 51°13.636 2°56.02 11.0809 0.065535 0.347699 -1.326982
2012-02-17 07:10:02 51°13.636 2°56.02 11.0826 0.065535 0.347699 -1.326982
2012-02-17 07:10:07 51°13.637 2°56.019 11.0838 0.065638 0.348273 -1.326982
2012-02-17 07:10:12 51°13.637 2°56.019 11.0844 0.065535 0.347711 -1.326982
2012-02-17 07:10:18 51°13.637 2°56.019 11.0828 0.065638 0.348273 -1.326982
2012-02-17 07:10:23 51°13.637 2°56.019 11.0812 0.065535 0.347705 -1.326982
2012-02-17 07:10:27 51°13.637 2°56.019 11.0827 0.065638 0.348267 -1.326982
2012-02-17 07:10:32 51°13.637 2°56.019 11.084 0.065638 0.348267 -1.326982
2012-02-17 07:10:37 51°13.637 2°56.019 11.0841 0.065638 0.348255 -1.326982
2012-02-17 07:10:43 51°13.637 2°56.019 11.0836 0.065638 0.348249 -1.326982
2012-02-17 07:10:48 51°13.637 2°56.019 11.0851 0.065638 0.348249 -1.326982
2012-02-17 07:10:52 51°13.637 2°56.019 11.0861 0.065638 0.348249 -1.326982
2012-02-17 07:10:57 51°13.637 2°56.018 11.086 0.065638 0.348255 -1.326982
2012-02-17 07:11:02 51°13.637 2°56.019 11.0882 0.065638 0.348255 -1.326982
2012-02-17 07:11:08 51°13.636 2°56.019 11.0917 0.065638 0.348249 -1.326982
2012-02-17 07:11:12 51°13.636 2°56.019 11.0927 0.065638 0.348249 -1.326982
2012-02-17 07:11:17 51°13.637 2°56.019 11.0936 0.065638 0.348243 -1.326982
2012-02-17 07:11:22 51°13.636 2°56.019 11.0944 0.065638 0.348243 -1.326982
2012-02-17 07:11:28 51°13.636 2°56.019 11.0924 0.065638 0.348243 -1.326982
2012-02-17 07:11:33 51°13.636 2°56.019 11.0905 0.065638 0.348243 -1.326982
2012-02-17 07:11:37 51°13.636 2°56.019 11.0894 0.065638 0.348237 -1.326982
2012-02-17 07:11:42 51°13.636 2°56.019 11.0922 0.065638 0.348231 -1.326982
2012-02-17 07:11:47 51°13.636 2°56.019 11.0886 0.065638 0.348231 -1.326982
2012-02-17 07:11:52 51°13.636 2°56.02 11.0889 0.065638 0.348231 -1.326982
2012-02-17 07:11:57 51°13.636 2°56.02 11.0833 0.065638 0.348231 -1.326982
2012-02-17 07:12:02 51°13.636 2°56.02 11.0823 0.065638 0.348231 -1.326982
2012-02-17 07:12:08 51°13.636 2°56.02 11.0815 0.065638 0.348231 -1.326982
2012-02-17 07:12:13 51°13.636 2°56.02 11.0815 0.065638 0.348225 -1.326982
2012-02-17 07:12:18 51°13.636 2°56.019 11.081 0.065638 0.348219 -1.326982
2012-02-17 07:12:22 51°13.636 2°56.019 11.0815 0.065638 0.348225 -1.326982
2012-02-17 07:12:28 51°13.636 2°56.019 11.0833 0.065638 0.348219 -1.326982
2012-02-17 07:12:33 51°13.636 2°56.019 11.0871 0.065638 0.348219 -1.326982
2012-02-17 07:12:38 51°13.636 2°56.018 11.0883 0.065638 0.348219 -1.326982
2012-02-17 07:12:42 51°13.636 2°56.019 11.0906 0.065638 0.348213 -1.326982
2012-02-17 07:12:48 51°13.636 2°56.018 11.0921 0.065638 0.348213 -1.326982
2012-02-17 07:12:52 51°13.636 2°56.019 11.0934 0.065638 0.348213 -1.326982
2012-02-17 07:12:57 51°13.636 2°56.019 11.0945 0.065638 0.348213 -1.326982
2012-02-17 07:13:02 51°13.636 2°56.02 11.0942 0.065638 0.348213 -1.326982
2012-02-17 07:13:08 51°13.636 2°56.019 11.0927 0.065638 0.348213 -1.326982
2012-02-17 07:13:12 51°13.635 2°56.019 11.0923 0.065638 0.348213 -1.326982
2012-02-17 07:13:18 51°13.635 2°56.019 11.092 0.065638 0.348208 -1.326982
2012-02-17 07:13:23 51°13.635 2°56.019 11.093 0.065638 0.348213 -1.326982
2012-02-17 07:13:27 51°13.635 2°56.019 11.0936 0.065638 0.348208 -1.326982
2012-02-17 07:13:33 51°13.635 2°56.019 11.0946 0.065638 0.348208 -1.326982
2012-02-17 07:13:38 51°13.635 2°56.019 11.0959 0.065638 0.348202 -1.326982
2012-02-17 07:13:42 51°13.635 2°56.019 11.0974 0.065638 0.348208 -1.326982
2012-02-17 07:13:47 51°13.635 2°56.019 11.1011 0.065638 0.348202 -1.326982
2012-02-17 07:13:52 51°13.635 2°56.019 11.1001 0.065638 0.348202 -1.326982
2012-02-17 07:13:57 51°13.635 2°56.019 11.1017 0.065638 0.348202 -1.326982
2012-02-17 07:14:03 51°13.635 2°56.018 11.102 0.065638 0.348202 -1.326982
2012-02-17 07:14:08 51°13.635 2°56.018 11.1017 0.065638 0.348196 -1.326982
2012-02-17 07:14:12 51°13.635 2°56.018 11.1017 0.065638 0.348196 -1.326982
2012-02-17 07:14:18 51°13.635 2°56.019 11.0999 0.065535 0.347634 -1.326982
2012-02-17 07:14:23 51°13.635 2°56.019 11.1025 0.065638 0.34819 -1.326982
2012-02-17 07:14:28 51°13.635 2°56.019 11.104 0.065638 0.348196 -1.326982
2012-02-17 07:14:32 51°13.635 2°56.019 11.103 0.065638 0.348196 -1.326982
2012-02-17 07:14:37 51°13.635 2°56.019 11.1077 0.065638 0.348196 -1.326982
2012-02-17 07:14:42 51°13.636 2°56.019 11.1077 0.065638 0.34819 -1.326982
2012-02-17 07:14:47 51°13.636 2°56.019 11.117 0.065535 0.347628 -1.326982
2012-02-17 07:14:52 51°13.636 2°56.019 11.1227 0.065638 0.34819 -1.326982
2012-02-17 07:14:57 51°13.636 2°56.019 11.1275 0.065638 0.34819 -1.326982
2012-02-17 07:15:03 51°13.636 2°56.019 11.1308 0.065638 0.34819 -1.326982
2012-02-17 07:15:08 51°13.636 2°56.02 11.1328 0.065638 0.348184 -1.326982
2012-02-17 07:15:13 51°13.636 2°56.02 11.1246 0.065638 0.348184 -1.326982
2012-02-17 07:15:17 51°13.636 2°56.02 11.1112 0.065638 0.348184 -1.326982
2012-02-17 07:15:22 51°13.636 2°56.02 11.0901 0.065638 0.348184 -1.326982
2012-02-17 07:15:28 51°13.636 2°56.019 11.0913 0.065638 0.348178 -1.326982
2012-02-17 07:15:32 51°13.636 2°56.019 11.0906 0.065638 0.348178 -1.326982
2012-02-17 07:15:37 51°13.636 2°56.019 11.1071 0.065638 0.348178 -1.326982
2012-02-17 07:15:42 51°13.636 2°56.019 11.107 0.065638 0.348184 -1.326982
2012-02-17 07:15:47 51°13.636 2°56.019 11.1082 0.065638 0.348178 -1.326982
2012-02-17 07:15:52 51°13.636 2°56.019 11.106 0.065638 0.348178 -1.326982
2012-02-17 07:15:57 51°13.636 2°56.019 11.1069 0.065535 0.347616 -1.326982
2012-02-17 07:16:02 51°13.637 2°56.019 11.1099 0.065535 0.347616 -1.326982
2012-02-17 07:16:08 51°13.64 2°56.02 11.1445 0.065638 0.348172 -1.326982
2012-02-17 07:16:13 51°13.641 2°56.02 11.1475 0.065638 0.348172 -1.326982
2012-02-17 07:16:18 51°13.64 2°56.02 11.1555 0.065638 0.348172 -1.326982
2012-02-17 07:16:22 51°13.639 2°56.02 11.1466 0.065638 0.348172 -1.326982
2012-02-17 07:16:27 51°13.638 2°56.019 11.1461 0.065638 0.348172 -1.326982
2012-02-17 07:16:32 51°13.638 2°56.019 11.1447 0.065638 0.348172 -1.326982
2012-02-17 07:16:37 51°13.638 2°56.019 11.1471 0.065638 0.348172 -1.326982
2012-02-17 07:16:42 51°13.638 2°56.019 11.147 0.065638 0.348178 -1.326982
2012-02-17 07:16:47 51°13.638 2°56.019 11.1532 0.065638 0.348172 -1.326982
2012-02-17 07:16:52 51°13.637 2°56.02 11.155 0.065638 0.348166 -1.326982
2012-02-17 07:16:56 51°13.637 2°56.02 11.1582 0.065638 0.34816 -1.326982
2012-02-17 07:17:03 51°13.637 2°56.02 11.1384 0.065638 0.34816 -1.326982
2012-02-17 07:17:07 51°13.637 2°56.02 11.1551 0.065638 0.348149 -1.326982
2012-02-17 07:17:13 51°13.637 2°56.019 11.1352 0.065638 0.348154 -1.326982
2012-02-17 07:17:18 51°13.637 2°56.019 11.1522 0.065638 0.348154 -1.326982
2012-02-17 07:17:23 51°13.637 2°56.019 11.1637 0.065638 0.34816 -1.326982
2012-02-17 07:17:28 51°13.637 2°56.019 11.1528 0.065638 0.34816 -1.326982
2012-02-17 07:17:33 51°13.637 2°56.019 11.157 0.065638 0.34816 -1.326982
2012-02-17 07:17:38 51°13.637 2°56.019 11.1578 0.065638 0.348149 -1.326982
2012-02-17 07:17:43 51°13.637 2°56.019 11.1563 0.065638 0.348143 -1.326982
2012-02-17 07:17:47 51°13.637 2°56.02 11.1575 0.065535 0.347581 -1.326982
2012-02-17 07:17:53 51°13.637 2°56.019 11.1576 0.065638 0.348149 -1.326982
2012-02-17 07:17:57 51°13.637 2°56.019 11.1581 0.065638 0.348154 -1.326982
2012-02-17 07:18:02 51°13.637 2°56.019 11.1591 0.065638 0.348154 -1.326982
2012-02-17 07:18:07 51°13.637 2°56.019 11.1597 0.065535 0.347599 -1.326982
2012-02-17 07:18:13 51°13.637 2°56.018 11.1588 0.065638 0.348166 -1.326982
2012-02-17 07:18:17 51°13.637 2°56.018 11.1557 0.065638 0.348166 -1.326982
2012-02-17 07:18:22 51°13.636 2°56.019 11.1549 0.065535 0.347599 -1.326982
2012-02-17 07:18:27 51°13.636 2°56.019 11.1546 0.065638 0.348154 -1.326982
2012-02-17 07:18:32 51°13.636 2°56.019 11.1531 0.065638 0.348154 -1.326982
2012-02-17 07:18:38 51°13.636 2°56.019 11.1541 0.065638 0.348143 -1.326982
2012-02-17 07:18:43 51°13.636 2°56.019 11.1539 0.065638 0.348143 -1.326982
2012-02-17 07:18:47 51°13.636 2°56.019 11.1544 0.065638 0.348137 -1.326982
2012-02-17 07:18:52 51°13.636 2°56.019 11.1551 0.065535 0.347575 -1.326982
2012-02-17 07:18:58 51°13.636 2°56.019 11.1564 0.065638 0.348137 -1.326982
2012-02-17 07:19:02 51°13.636 2°56.019 11.1561 0.065638 0.348137 -1.326982
2012-02-17 07:19:07 51°13.636 2°56.019 11.1638 0.065535 0.347581 -1.326982
2012-02-17 07:19:12 51°13.636 2°56.019 11.1696 0.065535 0.347581 -1.326982
2012-02-17 07:19:17 51°13.635 2°56.019 11.1728 0.065535 0.347587 -1.326982
2012-02-17 07:19:23 51°13.635 2°56.019 11.1703 0.065638 0.348149 -1.326982
2012-02-17 07:19:28 51°13.635 2°56.019 11.1668 0.065638 0.348143 -1.326982
2012-02-17 07:19:32 51°13.635 2°56.019 11.1649 0.065638 0.348143 -1.326982
2012-02-17 07:19:37 51°13.635 2°56.019 11.165 0.065638 0.348137 -1.326982
2012-02-17 07:19:42 51°13.635 2°56.019 11.1652 0.065638 0.348137 -1.326982
2012-02-17 07:19:47 51°13.635 2°56.019 11.1588 0.065638 0.348137 -1.326982
2012-02-17 07:19:53 51°13.635 2°56.018 11.1174 0.065638 0.348137 -1.326982
2012-02-17 07:19:57 51°13.635 2°56.018 11.1133 0.065535 0.347575 -1.326982
2012-02-17 07:20:02 51°13.635 2°56.017 11.0851 0.065535 0.347575 -1.326982
2012-02-17 07:20:08 51°13.635 2°56.013 11.0808 0.065535 0.347581 -1.326982
2012-02-17 07:20:13 51°13.636 2°56.011 11.146 0.065535 0.347575 -1.326982
2012-02-17 07:20:17 51°13.637 2°56.008 11.1999 0.065535 0.347569 -1.326982
2012-02-17 07:20:22 51°13.638 2°56.004 11.1703 0.065535 0.347569 -1.326982
2012-02-17 07:20:27 51°13.64 2°55.999 11.0869 0.065535 0.347581 -1.326982
2012-02-17 07:20:33 51°13.642 2°55.991 11.0988 0.065535 0.347581 -1.326982
2012-02-17 07:20:37 51°13.643 2°55.986 11.1476 0.065535 0.347581 -1.326982
2012-02-17 07:20:42 51°13.645 2°55.979 11.1251 0.065535 0.347563 -1.326982
2012-02-17 07:20:48 51°13.648 2°55.969 11.196 0.065535 0.347545 -1.326982
2012-02-17 07:20:53 51°13.65 2°55.961 11.2236 0.065535 0.347534 -1.326982
2012-02-17 07:20:58 51°13.651 2°55.953 11.1914 0.065535 0.34754 -1.326982
2012-02-17 07:21:02 51°13.653 2°55.947 11.213 0.065535 0.34754 -1.326982
2012-02-17 07:21:07 51°13.655 2°55.939 11.2098 0.065535 0.347551 -1.326982
2012-02-17 07:21:12 51°13.657 2°55.931 11.211 0.065535 0.347569 -1.326982
2012-02-17 07:21:18 51°13.659 2°55.921 11.2103 0.065535 0.347587 -1.326982
2012-02-17 07:21:22 51°13.661 2°55.914 11.216 0.065535 0.347599 -1.326982
2012-02-17 07:21:28 51°13.663 2°55.905 11.2957 0.065535 0.347599 -1.326982
2012-02-17 07:21:32 51°13.665 2°55.898 11.2728 0.065535 0.347599 -1.326982
2012-02-17 07:21:38 51°13.668 2°55.888 11.2681 0.065535 0.347581 -1.326982
2012-02-17 07:21:43 51°13.671 2°55.88 11.2553 0.065535 0.347569 -1.326982
2012-02-17 07:21:47 51°13.673 2°55.873 11.2442 0.065535 0.347557 -1.326982
2012-02-17 07:21:52 51°13.675 2°55.864 11.2317 0.065535 0.347557 -1.326982
2012-02-17 07:21:57 51°13.678 2°55.856 11.2321 0.065535 0.347557 -1.326982
2012-02-17 07:22:02 51°13.681 2°55.848 11.2226 0.065535 0.347557 -1.326982
2012-02-17 07:22:07 51°13.683 2°55.84 11.222 0.065535 0.347563 -1.326982
2012-02-17 07:22:13 51°13.686 2°55.832 11.2357 0.065535 0.347575 -1.326982
2012-02-17 07:22:17 51°13.688 2°55.825 11.2347 0.065535 0.347581 -1.326982
2012-02-17 07:22:22 51°13.691 2°55.817 11.2284 0.065535 0.347575 -1.326982
2012-02-17 07:22:27 51°13.694 2°55.809 11.2289 0.065535 0.347569 -1.326982
2012-02-17 07:22:32 51°13.696 2°55.801 11.2285 0.065535 0.347569 -1.326982
2012-02-17 07:22:37 51°13.698 2°55.793 11.2273 0.065535 0.347557 -1.326982
2012-02-17 07:22:43 51°13.701 2°55.785 11.2234 0.065535 0.347545 -1.326982
2012-02-17 07:22:48 51°13.702 2°55.779 11.2271 0.065535 0.34754 -1.326982
2012-02-17 07:22:52 51°13.704 2°55.775 11.3108 0.065535 0.347557 -1.326982
2012-02-17 07:22:58 51°13.705 2°55.773 11.3693 0.065535 0.347563 -1.326982
2012-02-17 07:23:03 51°13.705 2°55.774 11.3795 0.065535 0.347563 -1.326982
2012-02-17 07:23:07 51°13.705 2°55.776 11.3699 0.065535 0.347581 -1.326982
2012-02-17 07:23:12 51°13.706 2°55.78 11.3556 0.065535 0.347599 -1.326982
2012-02-17 07:23:18 51°13.707 2°55.784 11.2562 0.065535 0.347604 -1.326982
2012-02-17 07:23:22 51°13.708 2°55.786 11.1931 0.065535 0.347569 -1.326982
2012-02-17 07:23:27 51°13.708 2°55.788 11.176 0.065535 0.347522 -1.326982
2012-02-17 07:23:32 51°13.709 2°55.789 11.2389 0.065535 0.347522 -1.326982
2012-02-17 07:23:37 51°13.709 2°55.788 11.1768 0.065535 0.347504 -1.326982
2012-02-17 07:23:43 51°13.709 2°55.786 11.2302 0.065535 0.34751 -1.326982
2012-02-17 07:23:48 51°13.708 2°55.784 11.2169 0.065535 0.347534 -1.326982
2012-02-17 07:23:52 51°13.706 2°55.781 11.2491 0.065535 0.347563 -1.326982
2012-02-17 07:23:57 51°13.705 2°55.778 11.2381 0.065535 0.347581 -1.326982
2012-02-17 07:24:02 51°13.703 2°55.774 11.2246 0.065535 0.347581 -1.326982
2012-02-17 07:24:07 51°13.701 2°55.771 11.2173 0.065535 0.347581 -1.326982
2012-02-17 07:24:12 51°13.699 2°55.768 11.2076 0.065535 0.347569 -1.326982
2012-02-17 07:24:17 51°13.698 2°55.765 11.194 0.065535 0.347551 -1.326982
2012-02-17 07:24:22 51°13.697 2°55.763 11.2385 0.065535 0.34754 -1.326982
2012-02-17 07:24:28 51°13.696 2°55.761 11.2832 0.065535 0.347534 -1.326982
2012-02-17 07:24:33 51°13.696 2°55.762 11.3156 0.065535 0.347534 -1.326982
2012-02-17 07:24:37 51°13.697 2°55.763 11.3216 0.065535 0.347545 -1.326982
2012-02-17 07:24:42 51°13.699 2°55.764 11.3328 0.065535 0.347557 -1.326982
2012-02-17 07:24:47 51°13.702 2°55.766 11.3121 0.065535 0.347575 -1.326982
2012-02-17 07:24:52 51°13.704 2°55.767 11.2413 0.065535 0.347587 -1.326982
2012-02-17 07:24:57 51°13.707 2°55.769 11.223 0.065535 0.347575 -1.326982
2012-02-17 07:25:02 51°13.71 2°55.769 11.1634 0.065535 0.347575 -1.326982
2012-02-17 07:25:08 51°13.712 2°55.77 11.144 0.065432 0.346996 -1.326982
2012-02-17 07:25:13 51°13.713 2°55.77 11.2234 0.065535 0.347545 -1.326982
2012-02-17 07:25:18 51°13.713 2°55.77 11.1728 0.065432 0.346972 -1.326982
2012-02-17 07:25:22 51°13.712 2°55.771 11.1165 0.065432 0.346978 -1.326982
2012-02-17 07:25:27 51°13.712 2°55.771 11.2012 0.065432 0.346978 -1.326982
2012-02-17 07:25:32 51°13.712 2°55.772 11.2261 0.065432 0.346978 -1.326982
2012-02-17 07:25:37 51°13.711 2°55.772 11.2262 0.065535 0.347545 -1.326982
2012-02-17 07:25:42 51°13.711 2°55.772 11.2836 0.065535 0.347545 -1.326982
2012-02-17 07:25:47 51°13.712 2°55.773 11.3151 0.065432 0.346972 -1.326982
2012-02-17 07:25:52 51°13.714 2°55.773 11.3279 0.065535 0.34754 -1.326982
2012-02-17 07:25:58 51°13.717 2°55.772 11.3388 0.065432 0.346978 -1.326982
2012-02-17 07:26:03 51°13.721 2°55.77 11.336 0.065432 0.346978 -1.326982
2012-02-17 07:26:07 51°13.724 2°55.767 11.3498 0.065432 0.346996 -1.326982
2012-02-17 07:26:13 51°13.729 2°55.761 11.3375 0.065432 0.347019 -1.326982
2012-02-17 07:26:18 51°13.734 2°55.755 11.2619 0.065432 0.347013 -1.326982
2012-02-17 07:26:23 51°13.739 2°55.748 11.1873 0.065432 0.347001 -1.326982
2012-02-17 07:26:27 51°13.743 2°55.742 11.1376 0.065432 0.346996 -1.326982
2012-02-17 07:26:33 51°13.748 2°55.733 11.0937 0.065432 0.346996 -1.326982
2012-02-17 07:26:37 51°13.752 2°55.727 10.9726 0.065432 0.346984 -1.326982
2012-02-17 07:26:42 51°13.757 2°55.719 10.981 0.065432 0.346966 -1.326982
2012-02-17 07:26:47 51°13.762 2°55.712 10.978 0.065432 0.34696 -1.326982
2012-02-17 07:26:53 51°13.768 2°55.702 11.0102 0.065432 0.346966 -1.326982
2012-02-17 07:26:58 51°13.774 2°55.695 11.047 0.065432 0.346972 -1.326982
2012-02-17 07:27:02 51°13.778 2°55.689 11.0544 0.065432 0.346972 -1.326982
2012-02-17 07:27:08 51°13.784 2°55.68 11.059 0.065432 0.346984 -1.326982
2012-02-17 07:27:12 51°13.788 2°55.674 11.0798 0.065432 0.347001 -1.326982
2012-02-17 07:27:17 51°13.795 2°55.667 11.0957 0.065432 0.347007 -1.326982
2012-02-17 07:27:22 51°13.802 2°55.659 11.0645 0.065432 0.347001 -1.326982
2012-02-17 07:27:27 51°13.81 2°55.651 11.0841 0.065432 0.346996 -1.326982
2012-02-17 07:27:32 51°13.818 2°55.643 11.0411 0.065432 0.346996 -1.326982
2012-02-17 07:27:38 51°13.83 2°55.633 11.1002 0.065432 0.34699 -1.326982
2012-02-17 07:27:43 51°13.84 2°55.623 10.8795 0.065432 0.346996 -1.326982
2012-02-17 07:27:48 51°13.85 2°55.615 11.0286 0.065432 0.34699 -1.326982
2012-02-17 07:27:53 51°13.86 2°55.606 10.9296 0.065432 0.346996 -1.326982
2012-02-17 07:27:57 51°13.869 2°55.599 11.0259 0.065432 0.347001 -1.326982
2012-02-17 07:28:02 51°13.88 2°55.59 10.8937 0.065432 0.347001 -1.326982
2012-02-17 07:28:07 51°13.892 2°55.582 10.9268 0.065432 0.347001 -1.326982
2012-02-17 07:28:12 51°13.904 2°55.574 10.8799 0.065432 0.347001 -1.326982
2012-02-17 07:28:17 51°13.916 2°55.566 10.9043 0.065432 0.346996 -1.326982
2012-02-17 07:28:22 51°13.928 2°55.558 10.8791 0.065432 0.34699 -1.326982
2012-02-17 07:28:27 51°13.941 2°55.55 10.9483 0.065432 0.347001 -1.326982
2012-02-17 07:28:32 51°13.953 2°55.542 10.9149 0.065432 0.347001 -1.326982
2012-02-17 07:28:37 51°13.965 2°55.535 10.9234 0.065432 0.347007 -1.326982
2012-02-17 07:28:42 51°13.978 2°55.527 10.9448 0.065432 0.347001 -1.326982
2012-02-17 07:28:48 51°13.993 2°55.518 11.0465 0.065432 0.347013 -1.326982
2012-02-17 07:28:52 51°14.003 2°55.511 10.9425 0.065432 0.347007 -1.326982
2012-02-17 07:28:58 51°14.018 2°55.502 10.9503 0.065432 0.346996 -1.326982
2012-02-17 07:29:02 51°14.029 2°55.496 10.9871 0.065432 0.346996 -1.326982
2012-02-17 07:29:08 51°14.044 2°55.485 11.048 0.065432 0.347001 -1.326982
2012-02-17 07:29:13 51°14.057 2°55.477 11.121 0.065432 0.347001 -1.326982
2012-02-17 07:29:17 51°14.067 2°55.469 11.0791 0.065432 0.347013 -1.326982
2012-02-17 07:29:22 51°14.079 2°55.46 10.955 0.065432 0.347007 -1.326982
2012-02-17 07:29:28 51°14.094 2°55.449 10.9611 0.065432 0.347013 -1.326982
2012-02-17 07:29:33 51°14.106 2°55.44 10.8628 0.065432 0.347013 -1.326982
2012-02-17 07:29:38 51°14.119 2°55.431 10.948 0.065432 0.347007 -1.295547
2012-02-17 07:29:42 51°14.129 2°55.424 11.0142 0.065432 0.347007 -1.326982
2012-02-17 07:29:47 51°14.142 2°55.414 11.1238 0.065432 0.347007 -1.326982
2012-02-17 07:29:52 51°14.154 2°55.404 11.1368 0.065432 0.347025 -1.326982
2012-02-17 07:29:58 51°14.168 2°55.391 11.0819 0.065432 0.347019 -1.326982
2012-02-17 07:30:02 51°14.177 2°55.382 10.9956 0.065432 0.347019 -1.326982
2012-02-17 07:30:07 51°14.189 2°55.371 11.0283 0.065432 0.347013 -1.326982
2012-02-17 07:30:12 51°14.201 2°55.36 10.9892 0.065432 0.347013 -1.326982
2012-02-17 07:30:17 51°14.213 2°55.349 11.0362 0.065432 0.347013 -1.326982
2012-02-17 07:30:22 51°14.224 2°55.337 10.9477 0.065432 0.347025 -1.326982
2012-02-17 07:30:27 51°14.236 2°55.325 10.9561 0.065432 0.347019 -1.326982
2012-02-17 07:30:33 51°14.25 2°55.311 11.0721 0.065432 0.347019 -1.326982
2012-02-17 07:30:37 51°14.259 2°55.302 10.9971 0.065432 0.347031 -1.326982
2012-02-17 07:30:42 51°14.27 2°55.289 10.8697 0.065432 0.347037 -1.326982
2012-02-17 07:30:48 51°14.285 2°55.275 11.0405 0.065432 0.347031 -1.326982
2012-02-17 07:30:52 51°14.294 2°55.266 11.0467 0.065432 0.347031 -1.326982
2012-02-17 07:30:58 51°14.307 2°55.252 11.0235 0.065432 0.347037 -1.326982
2012-02-17 07:31:03 51°14.319 2°55.24 10.9333 0.065432 0.347037 -1.326982
2012-02-17 07:31:08 51°14.331 2°55.229 10.9018 0.065432 0.347025 -1.326982
2012-02-17 07:31:12 51°14.341 2°55.221 10.8199 0.065432 0.347025 -1.326982
2012-02-17 07:31:18 51°14.355 2°55.207 9.0414 0.065021 0.345065 -1.16981
2012-02-17 07:31:23 51°14.366 2°55.195 7.5471 0.195407 1.072443 -1.295547
2012-02-17 07:31:28 51°14.378 2°55.184 6.0591 0.185534 1.022129 -0.666862
2012-02-17 07:31:32 51°14.387 2°55.175 5.1006 0.185534 1.022129 -0.666862
2012-02-17 07:31:37 51°14.398 2°55.164 4.612 0.604982 3.704939 -0.163914
2012-02-17 07:31:42 51°14.41 2°55.153 4.118 1.622395 11.9939 -0.729731
2012-02-17 07:31:48 51°14.424 2°55.14 3.9915 1.835213 14.171748 -1.138376
2012-02-17 07:31:52 51°14.433 2°55.131 3.6765 2.080334 17.088746 -1.075508
2012-02-17 07:31:57 51°14.446 2°55.121 3.5006 2.3827 21.006359 -0.981205
2012-02-17 07:32:03 51°14.46 2°55.108 3.3916 2.3827 21.006359 -0.981205
2012-02-17 07:32:07 51°14.471 2°55.099 3.321 2.771664 25.769344 -0.981205
2012-02-17 07:32:12 51°14.484 2°55.086 3.254 2.923869 28.287225 -0.918336
2012-02-17 07:32:18 51°14.5 2°55.07 3.2519 2.930911 29.242825 -0.94977
2012-02-17 07:32:23 51°14.513 2°55.057 3.2042 2.899791 29.431603 -0.94977
2012-02-17 07:32:28 51°14.527 2°55.043 3.1808 2.815528 28.926661 -0.981205
2012-02-17 07:32:32 51°14.539 2°55.033 3.2406 2.815528 28.926661 -0.981205
2012-02-17 07:32:37 51°14.555 2°55.022 3.2411 2.76901 28.723749 -1.012639
2012-02-17 07:32:42 51°14.57 2°55.011 3.0005 2.718671 28.370796 -0.981205
2012-02-17 07:32:48 51°14.589 2°54.999 2.9843 2.687663 28.159897 -0.918336
2012-02-17 07:32:52 51°14.602 2°54.991 3.0443 2.659448 27.970518 -0.918336
2012-02-17 07:32:57 51°14.618 2°54.979 2.948 2.640226 27.83985 -0.824033
2012-02-17 07:33:02 51°14.633 2°54.967 2.9327 2.640226 27.83985 -0.824033
2012-02-17 07:33:07 51°14.647 2°54.953 2.8444 2.630201 27.760302 -0.824033
2012-02-17 07:33:12 51°14.661 2°54.939 2.8692 2.6209 27.693179 -0.824033
2012-02-17 07:33:16 51°14.674 2°54.929 3.0072 2.622141 27.803864 -0.666862
2012-02-17 07:33:22 51°14.692 2°54.916 2.9958 2.615321 27.805034 -0.824033
2012-02-17 07:33:27 51°14.709 2°54.908 2.9868 2.613462 27.826315 -0.918336
2012-02-17 07:33:32 51°14.725 2°54.9 2.8326 2.613462 27.826315 -0.918336
2012-02-17 07:33:37 51°14.742 2°54.893 2.8048 2.612326 27.878194 -0.824033
2012-02-17 07:33:41 51°14.755 2°54.888 2.794 2.617597 27.984334 -0.698296
2012-02-17 07:33:47 51°14.777 2°54.882 2.7228 2.621421 28.068653 -0.729731
2012-02-17 07:33:52 51°14.794 2°54.878 2.7704 2.626588 28.123481 -0.698296
2012-02-17 07:33:57 51°14.812 2°54.876 2.8062 2.630515 28.158544 -0.792599
2012-02-17 07:34:01 51°14.827 2°54.874 2.7478 2.630515 28.158544 -0.792599
2012-02-17 07:34:06 51°14.845 2°54.873 2.6568 2.636096 28.257878 -0.824033
2012-02-17 07:34:11 51°14.863 2°54.872 2.6613 2.641368 28.372041 -0.729731
2012-02-17 07:34:16 51°14.881 2°54.873 2.6499 2.646639 28.469182 -0.729731
2012-02-17 07:34:21 51°14.899 2°54.873 2.6833 2.650153 28.545765 -0.761165
2012-02-17 07:34:25 51°14.914 2°54.874 2.6072 2.653564 28.606374 -0.698296
2012-02-17 07:34:31 51°14.936 2°54.876 2.6312 2.653564 28.606374 -0.698296
2012-02-17 07:34:36 51°14.954 2°54.879 2.618 2.658112 28.672637 -0.792599
2012-02-17 07:34:41 51°14.972 2°54.884 2.6396 2.59507 27.95072 -0.824033
2012-02-17 07:34:46 51°14.99 2°54.89 2.6281 2.662557 28.795301 -0.792599
2012-02-17 07:34:50 51°15.005 2°54.896 2.6057 2.664107 28.835962 -0.572559
2012-02-17 07:34:56 51°15.027 2°54.905 2.5746 2.666691 28.881874 -0.824033
2012-02-17 07:35:00 51°15.041 2°54.912 2.6244 2.666691 28.881874 -0.824033
2012-02-17 07:35:05 51°15.059 2°54.92 2.5915 2.667828 28.917731 -0.792599
2012-02-17 07:35:10 51°15.077 2°54.93 2.5768 2.668552 28.933507 -0.729731
2012-02-17 07:35:15 51°15.095 2°54.94 2.5471 2.670516 28.967672 -0.729731
2012-02-17 07:35:20 51°15.112 2°54.95 2.527 2.670723 28.979991 -0.824033
2012-02-17 07:35:25 51°15.13 2°54.961 2.5641 2.672066 29.010383 -0.698296
2012-02-17 07:35:30 51°15.148 2°54.972 2.5132 2.672066 29.010383 -0.698296
2012-02-17 07:35:34 51°15.162 2°54.982 2.5096 2.67403 29.043724 -0.792599
2012-02-17 07:35:39 51°15.179 2°54.994 2.5301 2.673203 29.040133 -0.729731
2012-02-17 07:35:44 51°15.196 2°55.007 2.5254 2.67403 29.064409 -0.761165
2012-02-17 07:35:49 51°15.214 2°55.02 2.4968 2.674031 29.079718 -0.541125
2012-02-17 07:35:54 51°15.231 2°55.032 2.4715 2.673514 29.093366 -0.666862
2012-02-17 07:35:59 51°15.248 2°55.046 2.4815 2.673514 29.093366 -0.666862
2012-02-17 07:36:04 51°15.265 2°55.058 2.4949 2.672997 29.101616 -0.635428
2012-02-17 07:36:09 51°15.282 2°55.071 2.4719 2.672791 29.109074 -0.541125
2012-02-17 07:36:14 51°15.299 2°55.084 2.5043 2.672584 29.115633 -0.666862
2012-02-17 07:36:19 51°15.316 2°55.098 2.5041 2.670827 29.098186 -0.478257
2012-02-17 07:36:24 51°15.333 2°55.111 2.4835 2.670207 29.102499 -0.572559
2012-02-17 07:36:29 51°15.35 2°55.124 2.4733 2.670207 29.102499 -0.572559
2012-02-17 07:36:34 51°15.367 2°55.138 2.4636 2.66938 29.104337 -0.635428
2012-02-17 07:36:39 51°15.385 2°55.151 2.4745 2.670311 29.127262 -0.729731
2012-02-17 07:36:44 51°15.402 2°55.165 2.483 2.673825 29.168533 -0.666862
2012-02-17 07:36:49 51°15.419 2°55.178 2.4758 2.688812 29.346665 -0.792599
2012-02-17 07:36:54 51°15.435 2°55.193 2.4701 2.688398 29.34626 -0.603994
2012-02-17 07:36:59 51°15.451 2°55.21 2.4914 2.688398 29.34626 -0.603994
2012-02-17 07:37:03 51°15.464 2°55.224 2.475 2.689432 29.365068 -0.698296
2012-02-17 07:37:08 51°15.479 2°55.242 2.4728 2.688192 29.358382 -0.572559
2012-02-17 07:37:15 51°15.501 2°55.268 2.4681 2.688605 29.366091 -0.824033
2012-02-17 07:37:19 51°15.513 2°55.284 2.4624 2.687675 29.349431 -0.572559
2012-02-17 07:37:24 51°15.528 2°55.303 2.4557 2.687261 29.349027 -0.541125
2012-02-17 07:37:29 51°15.542 2°55.325 2.468 2.687261 29.349027 -0.541125
2012-02-17 07:37:34 51°15.556 2°55.345 2.4813 2.688295 29.362364 -0.729731
2012-02-17 07:37:39 51°15.569 2°55.367 2.4577 2.686331 29.33876 -0.603994
2012-02-17 07:37:44 51°15.584 2°55.388 2.4509 2.686951 29.351692 -0.666862
2012-02-17 07:37:48 51°15.594 2°55.406 2.4583 2.685504 29.334298 -0.603994
2012-02-17 07:37:53 51°15.608 2°55.428 2.4669 2.685504 29.340689 -0.541125
2012-02-17 07:37:59 51°15.624 2°55.455 2.4611 2.685504 29.340689 -0.541125
2012-02-17 07:38:05 51°15.64 2°55.481 2.4633 2.684781 29.340208 -0.635428
2012-02-17 07:38:09 51°15.651 2°55.499 2.4589 2.682921 29.31601 -0.603994
2012-02-17 07:38:14 51°15.665 2°55.52 2.4535 2.684161 29.333664 -0.446822
2012-02-17 07:38:19 51°15.678 2°55.542 2.4626 2.68199 29.311212 -0.666862
2012-02-17 07:38:24 51°15.693 2°55.562 2.4422 2.678373 29.267711 -0.572559
2012-02-17 07:38:29 51°15.707 2°55.582 2.4433 2.678373 29.267711 -0.572559
2012-02-17 07:38:34 51°15.721 2°55.603 2.4539 2.678683 29.272351 -0.478257
2012-02-17 07:38:39 51°15.736 2°55.624 2.4509 2.680957 29.299695 -0.541125
2012-02-17 07:38:44 51°15.749 2°55.647 2.4575 2.679613 29.28536 -0.698296
2012-02-17 07:38:49 51°15.762 2°55.668 2.4447 2.67889 29.279395 -0.415388
2012-02-17 07:38:54 51°15.775 2°55.692 2.4516 2.676823 29.25818 -0.478257
2012-02-17 07:38:58 51°15.785 2°55.71 2.4568 2.676823 29.25818 -0.478257
2012-02-17 07:39:03 51°15.798 2°55.733 2.4521 2.676099 29.256769 -0.446822
2012-02-17 07:39:09 51°15.813 2°55.761 2.4313 2.675996 29.256437 -0.446822
2012-02-17 07:39:14 51°15.825 2°55.785 2.4445 2.676202 29.259836 -0.446822
2012-02-17 07:39:19 51°15.837 2°55.809 2.4305 2.676719 29.265141 -0.478257
2012-02-17 07:39:24 51°15.849 2°55.833 2.4266 2.674135 29.236791 -0.415388
2012-02-17 07:39:29 51°15.861 2°55.857 2.4384 2.674135 29.236791 -0.415388
2012-02-17 07:39:34 51°15.873 2°55.882 2.4346 2.674239 29.238034 -0.478257
2012-02-17 07:39:39 51°15.886 2°55.906 2.4313 2.672068 29.213746 -0.415388
2012-02-17 07:39:44 51°15.899 2°55.93 2.4404 2.675376 29.259005 -0.478257
2012-02-17 07:39:49 51°15.911 2°55.954 2.4419 2.672172 29.225007 -0.415388
2012-02-17 07:39:54 51°15.923 2°55.978 2.4333 2.674136 29.252287 -0.572559
2012-02-17 07:39:59 51°15.934 2°56.003 2.4275 2.674136 29.252287 -0.572559
2012-02-17 07:40:04 51°15.945 2°56.028 2.4328 2.672688 29.23396 -0.415388
2012-02-17 07:40:09 51°15.957 2°56.053 2.4296 2.672999 29.24225 -0.666862
2012-02-17 07:40:14 51°15.969 2°56.078 2.4491 2.670518 29.212393 -0.509691
2012-02-17 07:40:18 51°15.978 2°56.097 2.4425 2.669381 29.1978 -0.509691
2012-02-17 07:40:24 51°15.991 2°56.128 2.4486 2.670828 29.214303 -0.35252
2012-02-17 07:40:29 51°16.003 2°56.153 2.445 2.670828 29.214303 -0.35252
2012-02-17 07:40:34 51°16.013 2°56.179 2.4397 2.667727 29.175171 -0.383954
2012-02-17 07:40:39 51°16.026 2°56.204 2.4548 2.670932 29.221925 -0.478257
2012-02-17 07:40:44 51°16.036 2°56.229 2.4599 2.666797 29.169435 -0.446822
2012-02-17 07:40:49 51°16.047 2°56.254 2.4524 2.667314 29.170196 -0.509691
2012-02-17 07:40:54 51°16.059 2°56.28 2.468 2.66442 29.133562 -0.289651
2012-02-17 07:40:59 51°16.07 2°56.305 2.471 2.66442 29.133562 -0.289651
2012-02-17 07:41:04 51°16.081 2°56.329 2.4677 2.66318 29.118643 -0.383954
2012-02-17 07:41:09 51°16.093 2°56.355 2.4619 2.662973 29.115249 -0.321085
2012-02-17 07:41:15 51°16.107 2°56.384 2.4605 2.66442 29.130838 -0.478257
2012-02-17 07:41:19 51°16.114 2°56.405 2.4662 2.662043 29.099525 -0.509691
2012-02-17 07:41:24 51°16.126 2°56.43 2.4593 2.661216 29.085049 -0.415388
2012-02-17 07:41:29 51°16.137 2°56.455 2.466 2.661216 29.085049 -0.415388
2012-02-17 07:41:34 51°16.149 2°56.48 2.4629 2.661009 29.078033 -0.446822
2012-02-17 07:41:39 51°16.16 2°56.505 2.4657 2.659976 29.061987 -0.35252
2012-02-17 07:41:43 51°16.168 2°56.525 2.4619 2.660286 29.06843 -0.289651
2012-02-17 07:41:49 51°16.182 2°56.555 2.4703 2.659045 29.054428 -0.321085
2012-02-17 07:41:54 51°16.193 2°56.58 2.4763 2.659252 29.059629 -0.383954
2012-02-17 07:41:59 51°16.202 2°56.607 2.4917 2.659252 29.059629 -0.383954
2012-02-17 07:42:04 51°16.213 2°56.632 2.4733 2.660079 29.069569 -0.321085
2012-02-17 07:42:09 51°16.221 2°56.659 2.4666 2.655635 29.017956 -0.415388
2012-02-17 07:42:14 51°16.231 2°56.685 2.4656 2.641062 28.841962 -0.289651
2012-02-17 07:42:20 51°16.241 2°56.719 2.4837 2.614192 28.517681 -0.35252
2012-02-17 07:42:24 51°16.248 2°56.741 2.4809 2.596313 28.301598 -0.446822
2012-02-17 07:42:29 51°16.256 2°56.77 2.459 2.596313 28.301598 -0.446822
2012-02-17 07:42:34 51°16.265 2°56.797 2.4619 2.584739 28.155949 -0.101045
2012-02-17 07:42:39 51°16.272 2°56.825 2.4813 2.578539 28.080861 -0.415388
2012-02-17 07:42:44 51°16.281 2°56.853 2.4683 2.574302 28.032784 -0.383954
2012-02-17 07:42:49 51°16.288 2°56.882 2.4798 2.570582 27.990019 -0.226782
2012-02-17 07:42:54 51°16.296 2°56.91 2.4734 2.560249 27.864687 -0.226782
2012-02-17 07:42:59 51°16.302 2°56.938 2.4686 2.560249 27.864687 -0.226782
2012-02-17 07:43:04 51°16.309 2°56.967 2.4704 2.562212 27.89077 -0.35252
2012-02-17 07:43:08 51°16.313 2°56.99 2.4654 2.560972 27.876809 -0.289651
2012-02-17 07:43:13 51°16.321 2°57.02 2.4754 2.567069 27.948859 -0.415388
2012-02-17 07:43:18 51°16.327 2°57.049 2.4636 2.553429 27.783156 -0.195348
2012-02-17 07:43:24 51°16.335 2°57.084 2.4746 2.559525 27.856906 -0.415388
2012-02-17 07:43:29 51°16.343 2°57.113 2.4704 2.559525 27.856906 -0.415388
2012-02-17 07:43:34 51°16.349 2°57.142 2.4707 2.545989 27.694248 -0.226782
2012-02-17 07:43:39 51°16.357 2°57.171 2.4747 2.461575 26.690383 -0.195348
2012-02-17 07:43:44 51°16.363 2°57.2 2.4734 2.450727 26.564679 -0.101045
2012-02-17 07:43:50 51°16.372 2°57.234 2.4783 2.456203 26.632288 -0.289651
2012-02-17 07:43:55 51°16.379 2°57.263 2.481 2.43833 26.420602 -0.258217
2012-02-17 07:43:59 51°16.384 2°57.286 2.482 2.43833 26.420602 -0.258217
2012-02-17 07:44:04 51°16.392 2°57.315 2.4654 2.450521 26.56636 -0.195348
2012-02-17 07:44:09 51°16.399 2°57.344 2.4724 2.422111 26.229556 -0.195348
2012-02-17 07:44:14 51°16.406 2°57.373 2.4729 2.427483 26.293359 -0.163914
2012-02-17 07:44:19 51°16.415 2°57.402 2.4649 2.44112 26.45458 -0.321085
2012-02-17 07:44:24 51°16.423 2°57.431 2.4752 2.419115 26.191533 -0.289651
2012-02-17 07:44:30 51°16.432 2°57.465 2.4734 2.419115 26.191533 -0.289651
2012-02-17 07:44:35 51°16.44 2°57.493 2.4631 2.403104 26.000702 -0.383954
2012-02-17 07:44:39 51°16.446 2°57.516 2.4672 2.40517 26.026832 -0.383954
2012-02-17 07:44:44 51°16.454 2°57.545 2.4651 2.37604 25.683096 -0.226782
2012-02-17 07:44:49 51°16.462 2°57.573 2.4644 2.354555 25.430304 -0.258217
2012-02-17 07:44:54 51°16.469 2°57.602 2.4626 2.340301 25.260904 -0.289651
2012-02-17 07:44:59 51°16.477 2°57.63 2.467 2.340301 25.260904 -0.289651
2012-02-17 07:45:04 51°16.485 2°57.659 2.4668 2.310865 24.912339 -0.321085
2012-02-17 07:45:08 51°16.491 2°57.683 2.4653 2.229899 23.96009 -0.195348
2012-02-17 07:45:14 51°16.501 2°57.717 2.4545 2.267179 24.400258 -0.226782
2012-02-17 07:45:19 51°16.507 2°57.746 2.4537 2.339578 25.253929 -0.321085
2012-02-17 07:45:24 51°16.515 2°57.774 2.4484 2.245183 24.142068 -0.226782
2012-02-17 07:45:29 51°16.523 2°57.802 2.447 2.245183 24.142068 -0.226782
2012-02-17 07:45:34 51°16.532 2°57.83 2.4477 2.205323 23.672141 -0.289651
2012-02-17 07:45:39 51°16.541 2°57.858 2.4504 2.205323 23.671404 -0.195348
2012-02-17 07:45:44 51°16.55 2°57.886 2.4462 2.203568 23.653747 -0.13248
2012-02-17 07:45:49 51°16.559 2°57.913 2.4438 2.209144 23.721432 -0.163914
2012-02-17 07:45:54 51°16.569 2°57.939 2.4498 2.146985 22.997014 -0.258217
2012-02-17 07:45:59 51°16.58 2°57.966 2.4431 2.146985 22.997014 -0.258217
2012-02-17 07:46:04 51°16.59 2°57.992 2.4465 2.14905 23.022622 -0.195348
2012-02-17 07:46:09 51°16.601 2°58.018 2.4406 2.107856 22.542998 -0.289651
2012-02-17 07:46:15 51°16.614 2°58.047 2.4405 2.122516 22.716452 -0.195348
2012-02-17 07:46:19 51°16.624 2°58.068 2.4411 2.096294 22.410764 -0.226782
2012-02-17 07:46:25 51°16.639 2°58.097 2.4354 2.066046 22.059279 -0.289651
2012-02-17 07:46:29 51°16.648 2°58.117 2.4347 2.066046 22.059279 -0.289651
2012-02-17 07:46:34 51°16.66 2°58.141 2.4337 2.02713 21.606147 -0.289651
2012-02-17 07:46:39 51°16.671 2°58.165 2.4359 1.99121 21.188795 -0.258217
2012-02-17 07:46:44 51°16.684 2°58.19 2.4344 1.995442 21.23792 -0.383954
2012-02-17 07:46:49 51°16.696 2°58.215 2.4335 1.967059 20.910621 -0.069611
2012-02-17 07:46:54 51°16.708 2°58.239 2.4345 1.978206 21.040531 -0.226782
2012-02-17 07:46:59 51°16.72 2°58.263 2.4561 1.978206 21.040531 -0.226782
2012-02-17 07:47:04 51°16.731 2°58.288 2.4565 1.946521 20.674622 -0.226782
2012-02-17 07:47:09 51°16.743 2°58.312 2.4448 1.930524 20.490122 -0.35252
2012-02-17 07:47:14 51°16.754 2°58.338 2.4589 1.908543 20.236621 -0.446822
2012-02-17 07:47:19 51°16.766 2°58.363 2.455 1.914115 20.301019 -0.383954
2012-02-17 07:47:24 51°16.777 2°58.389 2.4617 1.858288 19.65561 -0.35252
2012-02-17 07:47:29 51°16.789 2°58.415 2.4626 1.858288 19.65561 -0.35252
2012-02-17 07:47:34 51°16.801 2°58.44 2.468 1.82754 19.299934 -0.415388
2012-02-17 07:47:39 51°16.813 2°58.464 2.4739 1.853645 19.59846 -0.289651
2012-02-17 07:47:44 51°16.824 2°58.489 2.4748 1.84539 19.502223 -0.35252
2012-02-17 07:47:49 51°16.836 2°58.514 2.4782 1.827024 19.289187 -0.321085
2012-02-17 07:47:53 51°16.846 2°58.533 2.4908 1.828365 19.302797 -0.415388
2012-02-17 07:47:58 51°16.857 2°58.559 2.4945 1.828365 19.302797 -0.415388
2012-02-17 07:48:03 51°16.87 2°58.583 2.491 1.829191 19.309875 -0.226782
2012-02-17 07:48:08 51°16.882 2°58.607 2.4983 1.818254 19.182427 -0.35252
2012-02-17 07:48:14 51°16.897 2°58.637 2.5075 1.818254 19.180034 -0.446822
2012-02-17 07:48:19 51°16.909 2°58.662 2.5099 1.82981 19.310965 -0.415388
2012-02-17 07:48:24 51°16.92 2°58.688 2.5154 1.830016 19.310325 -0.446822
2012-02-17 07:48:29 51°16.932 2°58.712 2.5265 1.830016 19.310325 -0.446822
2012-02-17 07:48:34 51°16.943 2°58.738 2.5274 1.824754 19.245683 -0.383954
2012-02-17 07:48:39 51°16.954 2°58.764 2.536 1.823206 19.225517 -0.415388
2012-02-17 07:48:44 51°16.966 2°58.789 2.5317 1.841985 19.438781 -0.258217
2012-02-17 07:48:49 51°16.977 2°58.816 2.5343 1.840747 19.420317 -0.289651
2012-02-17 07:48:54 51°16.989 2°58.842 2.5373 1.843636 19.449266 -0.35252
2012-02-17 07:48:59 51°17 2°58.867 2.5387 1.843636 19.449266 -0.35252
2012-02-17 07:49:03 51°17.01 2°58.887 2.5313 1.828571 19.271499 -0.383954
2012-02-17 07:49:09 51°17.024 2°58.917 2.5311 1.828674 19.269682 -0.383954
2012-02-17 07:49:14 51°17.035 2°58.943 2.5306 1.838167 19.376199 -0.35252
2012-02-17 07:49:19 51°17.047 2°58.969 2.5232 1.850549 19.515322 -0.446822
2012-02-17 07:49:24 51°17.058 2°58.995 2.5272 1.811547 19.067955 -0.35252
2012-02-17 07:49:29 51°17.069 2°59.021 2.5248 1.811547 19.067955 -0.35252
2012-02-17 07:49:34 51°17.079 2°59.048 2.5206 1.83404 19.324624 -0.321085
2012-02-17 07:49:39 51°17.091 2°59.074 2.518 1.825166 19.223456 -0.415388
2012-02-17 07:49:44 51°17.101 2°59.1 2.5268 1.819491 19.159593 -0.289651
2012-02-17 07:49:49 51°17.112 2°59.126 2.5136 1.823103 19.202188 -0.258217
2012-02-17 07:49:54 51°17.123 2°59.153 2.4999 1.841366 19.413517 -0.163914
2012-02-17 07:49:59 51°17.133 2°59.179 2.4994 1.841366 19.413517 -0.163914
2012-02-17 07:50:04 51°17.144 2°59.205 2.495 1.841985 19.421834 -0.163914
2012-02-17 07:50:09 51°17.154 2°59.232 2.495 1.806078 19.011234 -0.321085
2012-02-17 07:50:14 51°17.166 2°59.257 2.4948 1.855399 19.578945 -0.478257
2012-02-17 07:50:19 51°17.176 2°59.285 2.4922 1.814333 19.108796 -0.258217
2012-02-17 07:50:24 51°17.188 2°59.31 2.4814 1.854677 19.574912 -0.069611
2012-02-17 07:50:28 51°17.197 2°59.331 2.475 1.854677 19.574912 -0.069611
2012-02-17 07:50:34 51°17.211 2°59.361 2.4809 1.833111 19.332626 -0.35252
2012-02-17 07:50:40 51°17.225 2°59.391 2.4813 1.816706 19.14614 -0.289651
2012-02-17 07:50:44 51°17.234 2°59.412 2.4703 1.815055 19.13078 -0.383954
2012-02-17 07:50:49 51°17.246 2°59.437 2.4716 1.82692 19.26816 -0.289651
2012-02-17 07:50:54 51°17.257 2°59.464 2.4751 1.815777 19.143243 -0.101045
2012-02-17 07:50:59 51°17.268 2°59.489 2.4704 1.815777 19.143243 -0.101045
2012-02-17 07:51:05 51°17.281 2°59.521 2.4665 1.859011 19.643697 -0.006743
2012-02-17 07:51:09 51°17.291 2°59.541 2.4692 1.845184 19.486471 -0.13248
2012-02-17 07:51:14 51°17.302 2°59.567 2.4721 1.828159 19.291999 -0.258217
2012-02-17 07:51:19 51°17.314 2°59.592 2.4647 1.842811 19.462217 -0.321085
2012-02-17 07:51:24 51°17.326 2°59.617 2.4628 1.829397 19.309837 -0.101045
2012-02-17 07:51:29 51°17.338 2°59.642 2.4656 1.829397 19.309837 -0.101045
2012-02-17 07:51:34 51°17.35 2°59.666 2.4649 1.835175 19.378059 -0.321085
2012-02-17 07:51:39 51°17.362 2°59.692 2.463 1.846319 19.507431 -0.226782
2012-02-17 07:51:44 51°17.374 2°59.717 2.4692 1.826817 19.284408 -0.383954
2012-02-17 07:51:49 51°17.386 2°59.742 2.465 1.84539 19.499181 -0.13248
2012-02-17 07:51:54 51°17.398 2°59.767 2.465 1.830429 19.327119 -0.383954
2012-02-17 07:51:59 51°17.409 2°59.793 2.4645 1.830429 19.327119 -0.383954
2012-02-17 07:52:04 51°17.421 2°59.818 2.4659 1.82754 19.295718 -0.289651
2012-02-17 07:52:09 51°17.431 2°59.845 2.4589 1.831254 19.338418 -0.258217
2012-02-17 07:52:14 51°17.442 2°59.871 2.46 1.814127 19.142801 -0.289651
2012-02-17 07:52:19 51°17.452 2°59.898 2.4675 1.822484 19.238816 -0.321085
2012-02-17 07:52:24 51°17.463 2°59.925 2.4659 1.863964 19.715457 -0.289651
2012-02-17 07:52:29 51°17.473 2°59.951 2.4613 1.863964 19.715457 -0.289651
2012-02-17 07:52:34 51°17.484 2°59.977 2.4735 1.833421 19.36454 -0.383954
2012-02-17 07:52:38 51°17.492 2°59.999 2.4625 1.822794 19.242973 -0.415388
2012-02-17 07:52:43 51°17.503 3°0.026 2.4589 1.819389 19.204447 -0.415388
2012-02-17 07:52:48 51°17.513 3°0.053 2.4718 1.847144 19.523628 -0.35252
2012-02-17 07:52:54 51°17.526 3°0.084 2.4576 1.812269 19.122665 -0.321085
2012-02-17 07:52:59 51°17.536 3°0.111 2.4638 1.812269 19.122665 -0.321085
2012-02-17 07:53:04 51°17.547 3°0.138 2.4628 1.819079 19.200891 -0.383954
2012-02-17 07:53:09 51°17.557 3°0.164 2.4652 1.819595 19.20562 -0.258217
2012-02-17 07:53:14 51°17.568 3°0.191 2.4642 1.813611 19.137473 -0.101045
2012-02-17 07:53:19 51°17.578 3°0.217 2.4589 1.831048 19.339063 -0.415388
2012-02-17 07:53:23 51°17.587 3°0.238 2.4605 1.828572 19.310592 -0.13248
2012-02-17 07:53:28 51°17.598 3°0.265 2.4593 1.828572 19.310592 -0.13248
2012-02-17 07:53:34 51°17.611 3°0.296 2.4631 1.81877 19.197934 -0.258217
2012-02-17 07:53:39 51°17.622 3°0.322 2.4674 1.804634 19.036779 -0.289651
2012-02-17 07:53:43 51°17.632 3°0.342 2.4626 1.818254 19.193803 -0.101045
2012-02-17 07:53:48 51°17.643 3°0.368 2.462 1.82104 19.225817 -0.226782
2012-02-17 07:53:55 51°17.66 3°0.403 2.4626 1.801849 19.006579 -0.258217
2012-02-17 07:53:59 51°17.669 3°0.423 2.4649 1.801849 19.006579 -0.258217
2012-02-17 07:54:04 51°17.68 3°0.448 2.4634 1.838787 19.431705 -0.35252
2012-02-17 07:54:09 51°17.692 3°0.475 2.4638 1.814023 19.146994 -0.226782
2012-02-17 07:54:14 51°17.703 3°0.501 2.4648 1.825683 19.279787 -0.226782
2012-02-17 07:54:19 51°17.715 3°0.526 2.4618 1.848795 19.54568 -0.289651
2012-02-17 07:54:24 51°17.726 3°0.553 2.46 1.806904 19.064626 -0.226782
2012-02-17 07:54:29 51°17.736 3°0.58 2.4646 1.806904 19.064626 -0.226782
2012-02-17 07:54:34 51°17.748 3°0.607 2.4637 1.815984 19.168321 -0.226782
2012-02-17 07:54:39 51°17.758 3°0.634 2.464 1.813611 19.141057 -0.13248
2012-02-17 07:54:44 51°17.769 3°0.66 2.4666 1.835278 19.389528 -0.13248
2012-02-17 07:54:48 51°17.778 3°0.682 2.4644 1.812063 19.122682 -0.13248
2012-02-17 07:54:54 51°17.79 3°0.715 2.4675 1.829397 19.322494 -0.195348
2012-02-17 07:54:59 51°17.802 3°0.741 2.4656 1.829397 19.322494 -0.195348
2012-02-17 07:55:04 51°17.812 3°0.768 2.4679 1.853542 19.60033 -0.258217
2012-02-17 07:55:09 51°17.823 3°0.794 2.4671 1.824238 19.26258 -0.258217
2012-02-17 07:55:14 51°17.834 3°0.82 2.4688 1.824548 19.266739 -0.038177
2012-02-17 07:55:19 51°17.845 3°0.847 2.4656 1.806698 19.061661 -0.321085
2012-02-17 07:55:24 51°17.857 3°0.874 2.4665 1.814952 19.155869 -0.195348
2012-02-17 07:55:29 51°17.868 3°0.9 2.4678 1.814952 19.155869 -0.195348
2012-02-17 07:55:34 51°17.88 3°0.926 2.4633 1.842811 19.47558 -0.163914
2012-02-17 07:55:39 51°17.891 3°0.952 2.469 1.816809 19.177206 -0.383954
2012-02-17 07:55:44 51°17.903 3°0.977 2.4688 1.83889 19.430466 -0.321085
2012-02-17 07:55:49 51°17.914 3°1.002 2.4712 1.808142 19.077057 -0.289651
2012-02-17 07:55:54 51°17.927 3°1.028 2.4714 1.837652 19.416222 -0.258217
2012-02-17 07:55:59 51°17.939 3°1.054 2.4761 1.837652 19.416222 -0.258217
2012-02-17 07:56:05 51°17.953 3°1.084 2.4738 1.823206 19.25072 -0.226782
2012-02-17 07:56:08 51°17.96 3°1.098 2.4742 1.813198 19.136316 -0.163914
2012-02-17 07:56:13 51°17.973 3°1.123 2.4827 1.842914 19.478591 -0.163914
2012-02-17 07:56:20 51°17.99 3°1.159 2.4831 1.819595 19.209217 -0.289651
2012-02-17 07:56:25 51°18.002 3°1.185 2.4817 1.835897 19.396044 -0.13248
2012-02-17 07:56:29 51°18.011 3°1.206 2.4819 1.835897 19.396044 -0.13248
2012-02-17 07:56:34 51°18.023 3°1.231 2.4811 1.820524 19.218088 -0.446822
2012-02-17 07:56:39 51°18.034 3°1.258 2.4855 1.820833 19.220446 -0.321085
2012-02-17 07:56:45 51°18.048 3°1.29 2.4881 1.822174 19.235259 -0.226782
2012-02-17 07:56:49 51°18.057 3°1.311 2.4813 1.825992 19.277328 -0.258217
2012-02-17 07:56:54 51°18.068 3°1.338 2.4883 1.801539 18.995317 -0.35252
2012-02-17 07:56:59 51°18.079 3°1.365 2.4859 1.801539 18.995317 -0.35252
2012-02-17 07:57:04 51°18.09 3°1.392 2.4844 1.823103 19.242327 -0.35252
2012-02-17 07:57:09 51°18.101 3°1.418 2.4854 1.822071 19.229272 -0.321085
2012-02-17 07:57:14 51°18.113 3°1.445 2.4872 1.832802 19.351986 -0.163914
2012-02-17 07:57:19 51°18.125 3°1.47 2.4861 1.79865 18.960395 -0.35252
2012-02-17 07:57:24 51°18.138 3°1.495 2.4863 1.823516 19.245267 -0.446822
2012-02-17 07:57:29 51°18.15 3°1.52 2.489 1.823516 19.245267 -0.446822
2012-02-17 07:57:34 51°18.163 3°1.545 2.4886 1.809999 19.089447 -0.321085
2012-02-17 07:57:39 51°18.175 3°1.571 2.4874 1.833937 19.365034 -0.446822
2012-02-17 07:57:44 51°18.189 3°1.595 2.4866 1.837342 19.404787 -0.415388
2012-02-17 07:57:49 51°18.201 3°1.619 2.4943 1.821039 19.21682 -0.478257
2012-02-17 07:57:53 51°18.211 3°1.639 2.4881 1.821246 19.21919 -0.321085
2012-02-17 07:57:59 51°18.226 3°1.67 2.4913 1.821246 19.21919 -0.321085
2012-02-17 07:58:04 51°18.239 3°1.695 2.4907 1.828984 19.306901 -0.478257
2012-02-17 07:58:09 51°18.25 3°1.721 2.4908 1.829087 19.308689 -0.383954
2012-02-17 07:58:13 51°18.26 3°1.741 2.4934 1.818976 19.191919 -0.383954
2012-02-17 07:58:19 51°18.275 3°1.773 2.4965 1.812166 19.113725 -0.415388
2012-02-17 07:58:24 51°18.286 3°1.8 2.4916 1.844462 19.483633 -0.289651
2012-02-17 07:58:29 51°18.298 3°1.827 2.4907 1.844462 19.483633 -0.289651
2012-02-17 07:58:33 51°18.307 3°1.847 2.4877 1.828675 19.302741 -0.383954
2012-02-17 07:58:39 51°18.321 3°1.878 2.4885 1.813611 19.128518 -0.321085
2012-02-17 07:58:44 51°18.333 3°1.904 2.492 1.820936 19.212038 -0.258217
2012-02-17 07:58:49 51°18.346 3°1.93 2.4897 1.808452 19.068113 -0.383954
2012-02-17 07:58:53 51°18.355 3°1.951 2.4917 1.82269 19.230985 -0.446822
2012-02-17 07:58:59 51°18.37 3°1.981 2.4925 1.82269 19.230985 -0.446822
2012-02-17 07:59:04 51°18.381 3°2.008 2.4909 1.820523 19.207298 -0.383954
2012-02-17 07:59:09 51°18.394 3°2.032 2.5 1.838786 19.417764 -0.321085
2012-02-17 07:59:14 51°18.406 3°2.059 2.4954 1.805769 19.039112 -0.35252
2012-02-17 07:59:19 51°18.418 3°2.085 2.4983 1.84085 19.442706 -0.383954
2012-02-17 07:59:24 51°18.429 3°2.112 2.5005 1.823206 19.23991 -0.35252
2012-02-17 07:59:29 51°18.441 3°2.139 2.4962 1.823206 19.23991 -0.35252
2012-02-17 07:59:34 51°18.451 3°2.165 2.4976 1.81588 19.155177 -0.415388
2012-02-17 07:59:39 51°18.462 3°2.191 2.4969 1.794317 18.906561 -0.541125
2012-02-17 07:59:44 51°18.472 3°2.218 2.4955 1.773786 18.670125 -0.478257
2012-02-17 07:59:50 51°18.486 3°2.253 2.4996 1.809174 19.074617 -0.35252
2012-02-17 07:59:54 51°18.494 3°2.274 2.4926 1.787507 18.824387 -0.446822
2012-02-17 07:59:59 51°18.505 3°2.301 2.4934 1.787507 18.824387 -0.446822
2012-02-17 08:00:04 51°18.516 3°2.328 2.4922 1.814849 19.137957 -0.478257
2012-02-17 08:00:09 51°18.527 3°2.354 2.4933 1.788952 18.841527 -0.258217
2012-02-17 08:00:14 51°18.538 3°2.38 2.4921 1.787198 18.821427 -0.289651
2012-02-17 08:00:19 51°18.549 3°2.407 2.4941 1.784309 18.787154 -0.101045
2012-02-17 08:00:24 51°18.562 3°2.432 2.4908 1.796174 18.923134 -0.35252
2012-02-17 08:00:29 51°18.573 3°2.458 2.4893 1.796174 18.923134 -0.35252
2012-02-17 08:00:34 51°18.585 3°2.484 2.4866 1.791015 18.864588 -0.195348
2012-02-17 08:00:38 51°18.594 3°2.505 2.4916 1.792047 18.876414 -0.101045
2012-02-17 08:00:44 51°18.608 3°2.535 2.4856 1.776984 18.704419 -0.226782
2012-02-17 08:00:49 51°18.62 3°2.562 2.4866 1.804531 19.020159 -0.13248
2012-02-17 08:00:54 51°18.632 3°2.588 2.4834 1.792872 18.886464 -0.101045
2012-02-17 08:00:59 51°18.643 3°2.614 2.4814 1.792872 18.886464 -0.101045
2012-02-17 08:01:04 51°18.655 3°2.641 2.4763 1.799682 18.964539 -0.13248
2012-02-17 08:01:09 51°18.667 3°2.666 2.4793 1.786166 18.810778 -0.101045
2012-02-17 08:01:14 51°18.678 3°2.692 2.4759 1.776571 18.700276 0.024692
2012-02-17 08:01:19 51°18.69 3°2.716 2.476 1.798134 18.947383 -0.101045
2012-02-17 08:01:24 51°18.702 3°2.742 2.4721 1.782349 18.767039 -0.069611
2012-02-17 08:01:29 51°18.715 3°2.767 2.4744 1.782349 18.767039 -0.069611
2012-02-17 08:01:34 51°18.728 3°2.791 2.4791 1.772135 18.651805 -0.069611
2012-02-17 08:01:39 51°18.74 3°2.817 2.4747 1.774611 18.68249 0.056126
2012-02-17 08:01:44 51°18.752 3°2.841 2.4724 1.782143 18.769944 -0.163914
2012-02-17 08:01:49 51°18.764 3°2.867 2.4714 1.780492 18.752198 -0.13248
2012-02-17 08:01:54 51°18.776 3°2.892 2.4698 1.78988 18.860404 -0.006743
2012-02-17 08:01:59 51°18.788 3°2.918 2.4745 1.78988 18.860404 -0.006743
2012-02-17 08:02:04 51°18.798 3°2.944 2.48 1.806491 19.052749 -0.069611
2012-02-17 08:02:09 51°18.81 3°2.97 2.4743 1.798444 18.959802 -0.006743
2012-02-17 08:02:14 51°18.82 3°2.996 2.4781 1.792047 18.886427 -0.006743
2012-02-17 08:02:19 51°18.831 3°3.022 2.4772 1.800404 18.984071 -0.006743
2012-02-17 08:02:24 51°18.842 3°3.048 2.4778 1.786373 18.823711 -0.006743
2012-02-17 08:02:29 51°18.852 3°3.075 2.478 1.786373 18.823711 -0.006743
2012-02-17 08:02:34 51°18.863 3°3.101 2.4835 1.791222 18.879318 -0.038177
2012-02-17 08:02:39 51°18.872 3°3.127 2.4881 1.799372 18.972232 -0.101045
2012-02-17 08:02:44 51°18.884 3°3.152 2.4841 1.806904 19.058676 0.213297
2012-02-17 08:02:49 51°18.894 3°3.178 2.4899 1.777087 18.716692 0.276166
2012-02-17 08:02:54 51°18.905 3°3.203 2.4851 1.798134 18.958026 0.3076
2012-02-17 08:02:58 51°18.914 3°3.224 2.4858 1.798134 18.958026 0.3076
2012-02-17 08:03:04 51°18.927 3°3.255 2.4874 1.762231 18.545374 0.244731
2012-02-17 08:03:09 51°18.938 3°3.281 2.4882 1.765945 18.587317 0.3076
2012-02-17 08:03:14 51°18.95 3°3.306 2.4886 1.767286 18.601513 0.433337
2012-02-17 08:03:18 51°18.958 3°3.327 2.4943 1.756763 18.480483 0.52764
2012-02-17 08:03:24 51°18.972 3°3.356 2.4927 1.772032 18.655279 0.433337
2012-02-17 08:03:29 51°18.983 3°3.381 2.4916 1.772032 18.655279 0.433337
2012-02-17 08:03:34 51°18.995 3°3.407 2.4996 1.759549 18.512359 0.653377
2012-02-17 08:03:38 51°19.005 3°3.426 2.4951 1.758827 18.503517 0.52764
2012-02-17 08:03:43 51°19.016 3°3.451 2.5005 1.75047 18.406766 0.716245
2012-02-17 08:03:49 51°19.032 3°3.479 2.501 1.781833 18.765812 0.590508
2012-02-17 08:03:54 51°19.044 3°3.502 2.4973 1.78142 18.759912 0.716245
2012-02-17 08:03:58 51°19.054 3°3.521 2.5063 1.78142 18.759912 0.716245
2012-02-17 08:04:04 51°19.069 3°3.548 2.5027 1.779976 18.743363 0.74768
2012-02-17 08:04:09 51°19.081 3°3.572 2.5044 1.764398 18.563805 0.74768
2012-02-17 08:04:14 51°19.094 3°3.594 2.5049 1.764501 18.564986 0.841982
2012-02-17 08:04:18 51°19.104 3°3.613 2.5078 1.772135 18.651223 0.496206
2012-02-17 08:04:25 51°19.121 3°3.646 2.5143 1.784309 18.789498 0.904851
2012-02-17 08:04:28 51°19.128 3°3.66 2.5129 1.784309 18.789498 0.904851
2012-02-17 08:04:35 51°19.144 3°3.694 2.5123 1.787404 18.824379 0.716245
2012-02-17 08:04:39 51°19.153 3°3.713 2.5144 1.769246 18.614666 0.621943
2012-02-17 08:04:44 51°19.165 3°3.738 2.5141 1.781833 18.758789 0.52764
2012-02-17 08:04:49 51°19.176 3°3.762 2.518 1.78823 18.830901 0.653377
2012-02-17 08:04:54 51°19.187 3°3.787 2.5252 1.779151 18.725144 0.52764
2012-02-17 08:04:59 51°19.197 3°3.812 2.5198 1.779151 18.725144 0.52764
2012-02-17 08:05:04 51°19.208 3°3.838 2.5232 1.779976 18.733428 0.559074
2012-02-17 08:05:09 51°19.218 3°3.863 2.5206 1.781936 18.754122 0.401903
2012-02-17 08:05:14 51°19.229 3°3.889 2.5238 1.784515 18.783075 0.370468
2012-02-17 08:05:19 51°19.239 3°3.914 2.5253 1.772857 18.649021 0.621943
2012-02-17 08:05:24 51°19.25 3°3.939 2.5208 1.771103 18.627209 0.401903
2012-02-17 08:05:29 51°19.261 3°3.964 2.5272 1.771103 18.627209 0.401903
2012-02-17 08:05:34 51°19.272 3°3.989 2.5226 1.778531 18.710472 0.52764
2012-02-17 08:05:39 51°19.284 3°4.013 2.5236 1.795452 18.904243 0.464771
2012-02-17 08:05:43 51°19.293 3°4.032 2.5255 1.783277 18.764801 0.684811
2012-02-17 08:05:49 51°19.308 3°4.06 2.5249 1.791221 18.855193 0.276166
2012-02-17 08:05:54 51°19.32 3°4.084 2.5311 1.782039 18.749458 0.52764
2012-02-17 08:05:59 51°19.333 3°4.107 2.5261 1.782039 18.749458 0.52764
2012-02-17 08:06:03 51°19.343 3°4.125 2.5335 1.784206 18.774263 0.276166
2012-02-17 08:06:09 51°19.358 3°4.152 2.5286 1.804118 19.002979 0.464771
2012-02-17 08:06:14 51°19.369 3°4.177 2.5377 1.78173 18.746499 0.559074
2012-02-17 08:06:19 51°19.382 3°4.201 2.5282 1.805047 19.013624 0.213297
2012-02-17 08:06:23 51°19.39 3°4.221 2.5427 1.787301 18.809703 0.339034
2012-02-17 08:06:29 51°19.404 3°4.251 2.5355 1.787301 18.809703 0.339034
2012-02-17 08:06:34 51°19.415 3°4.277 2.5233 1.78565 18.789044 0.370468
2012-02-17 08:06:39 51°19.426 3°4.302 2.5222 1.804737 19.007114 0.3076
2012-02-17 08:06:43 51°19.434 3°4.324 2.525 1.791118 18.849899 0.590508
2012-02-17 08:06:48 51°19.445 3°4.35 2.5213 1.79184 18.85817 0.276166
2012-02-17 08:06:54 51°19.457 3°4.381 2.5278 1.791118 18.848724 0.496206
2012-02-17 08:06:59 51°19.468 3°4.407 2.5202 1.791118 18.848724 0.496206
2012-02-17 08:07:03 51°19.476 3°4.428 2.524 1.794729 18.888315 0.3076
2012-02-17 08:07:09 51°19.488 3°4.46 2.5221 1.788745 18.82038 0.150429
2012-02-17 08:07:14 51°19.498 3°4.487 2.5219 1.788745 18.823312 0.401903
2012-02-17 08:07:19 51°19.508 3°4.515 2.5255 1.788436 18.821527 0.244731
2012-02-17 08:07:23 51°19.516 3°4.536 2.5212 1.789983 18.83925 0.401903
2012-02-17 08:07:29 51°19.527 3°4.57 2.5213 1.789983 18.83925 0.401903
2012-02-17 08:07:34 51°19.536 3°4.598 2.5247 1.793594 18.8812 0.370468
2012-02-17 08:07:39 51°19.545 3°4.626 2.5178 1.798031 18.932029 0.3076
2012-02-17 08:07:43 51°19.553 3°4.648 2.5204 1.800198 18.957449 0.3076
2012-02-17 08:07:48 51°19.562 3°4.676 2.5194 1.786269 18.797303 0.339034
2012-02-17 08:07:54 51°19.573 3°4.711 2.5222 1.796793 18.918432 0.339034
2012-02-17 08:07:59 51°19.583 3°4.739 2.5202 1.796793 18.918432 0.339034
2012-02-17 08:08:04 51°19.592 3°4.767 2.5191 1.788539 18.823882 0.339034
2012-02-17 08:08:08 51°19.601 3°4.788 2.5233 1.790706 18.848697 0.433337
2012-02-17 08:08:14 51°19.613 3°4.822 2.5258 1.795761 18.907789 0.370468
2012-02-17 08:08:19 51°19.623 3°4.849 2.5224 1.79019 18.84455 0.401903
2012-02-17 08:08:23 51°19.631 3°4.871 2.5224 1.803086 18.992336 0.213297
2012-02-17 08:08:29 51°19.644 3°4.904 2.5263 1.803086 18.992336 0.213297
2012-02-17 08:08:34 51°19.655 3°4.931 2.5229 1.799063 18.946804 0.244731
2012-02-17 08:08:39 51°19.665 3°4.958 2.5232 1.797618 18.93025 0.181863
2012-02-17 08:08:43 51°19.673 3°4.98 2.5225 1.794729 18.896557 0.056126
2012-02-17 08:08:48 51°19.684 3°5.007 2.5248 1.810928 19.082248 0.150429
2012-02-17 08:08:54 51°19.696 3°5.04 2.5251 1.819388 19.17871 -0.13248
2012-02-17 08:08:59 51°19.706 3°5.068 2.521 1.819388 19.17871 -0.13248
2012-02-17 08:09:03 51°19.715 3°5.09 2.5231 1.807213 19.039059 0.024692
2012-02-17 08:09:09 51°19.727 3°5.123 2.5217 1.799991 18.956265 -0.13248
2012-02-17 08:09:14 51°19.737 3°5.151 2.5219 1.764397 18.548761 -0.069611
2012-02-17 08:09:19 51°19.748 3°5.177 2.5214 1.786063 18.796698 -0.101045
2012-02-17 08:09:23 51°19.756 3°5.199 2.524 1.783174 18.76245 -0.006743
2012-02-17 08:09:28 51°19.767 3°5.226 2.5205 1.783174 18.76245 -0.006743
2012-02-17 08:09:33 51°19.776 3°5.254 2.5216 1.788126 18.819742 -0.069611
2012-02-17 08:09:39 51°19.788 3°5.286 2.5253 1.767802 18.5877 -0.289651
2012-02-17 08:09:43 51°19.796 3°5.309 2.5302 2.769957 30.3819 -0.195348
2012-02-17 08:09:49 51°19.807 3°5.342 2.5275 2.765408 30.32694 -0.226782
2012-02-17 08:09:54 51°19.818 3°5.369 2.5265 2.764995 30.321944 -0.195348
2012-02-17 08:09:59 51°19.828 3°5.396 2.5223 2.764995 30.321944 -0.195348
2012-02-17 08:10:03 51°19.836 3°5.418 2.527 2.764891 30.320695 -0.038177
2012-02-17 08:10:08 51°19.847 3°5.444 2.5271 2.764891 30.32164 -0.038177
2012-02-17 08:10:14 51°19.86 3°5.476 2.5286 2.764995 30.321944 -0.289651
2012-02-17 08:10:19 51°19.871 3°5.502 2.5306 2.75383 30.18522 -0.195348
2012-02-17 08:10:23 51°19.881 3°5.522 2.5342 2.752486 30.168995 -0.163914
2012-02-17 08:10:29 51°19.893 3°5.554 2.5452 2.752486 30.168995 -0.163914
2012-02-17 08:10:34 51°19.906 3°5.579 2.5344 2.752176 30.16619 -0.195348
2012-02-17 08:10:39 51°19.917 3°5.605 2.5664 2.75197 30.163694 -0.038177
2012-02-17 08:10:43 51°19.927 3°5.625 2.5505 2.751659 30.15995 -0.13248
2012-02-17 08:10:49 51°19.94 3°5.656 2.5388 2.751556 30.157763 0.08756
2012-02-17 08:10:54 51°19.952 3°5.681 2.5438 2.751453 30.153697 -0.163914
2012-02-17 08:10:59 51°19.964 3°5.707 2.5432 2.751453 30.153697 -0.163914
2012-02-17 08:11:03 51°19.972 3°5.727 2.5576 2.751246 30.148384 0.150429
2012-02-17 08:11:08 51°19.983 3°5.753 2.5495 2.751142 30.14432 -0.006743
2012-02-17 08:11:14 51°19.996 3°5.785 2.5543 2.751039 30.136503 -0.006743
2012-02-17 08:11:19 51°20.007 3°5.81 2.5385 2.751039 30.133689 0.024692
2012-02-17 08:11:23 51°20.015 3°5.832 2.5438 2.750832 30.131194 0.056126
2012-02-17 08:11:28 51°20.025 3°5.859 2.5381 2.750832 30.131194 0.056126
2012-02-17 08:11:34 51°20.037 3°5.891 2.541 2.750522 30.127453 0.276166
2012-02-17 08:11:39 51°20.046 3°5.918 2.5489 2.750419 30.12433 0.370468
2012-02-17 08:11:43 51°20.054 3°5.939 2.5408 2.750315 30.121208 0.118994
2012-02-17 08:11:49 51°20.066 3°5.972 2.5394 2.750212 30.121836 0.118994
2012-02-17 08:11:54 51°20.076 3°5.999 2.5391 2.749799 30.119661 0.244731
2012-02-17 08:11:59 51°20.085 3°6.026 2.541 2.749799 30.119661 0.244731
2012-02-17 08:12:03 51°20.093 3°6.048 2.541 2.749385 30.116547 0.024692
2012-02-17 08:12:08 51°20.102 3°6.075 2.5399 2.749178 30.113115 0.08756
2012-02-17 08:12:14 51°20.114 3°6.108 2.5396 2.748868 30.110311 0.181863
2012-02-17 08:12:19 51°20.124 3°6.135 2.5434 2.748661 30.108754 0.401903
2012-02-17 08:12:23 51°20.132 3°6.156 2.5463 2.748351 30.10595 0.52764
2012-02-17 08:12:29 51°20.145 3°6.187 2.5472 2.748351 30.10595 0.52764
2012-02-17 08:12:34 51°20.155 3°6.213 2.5487 2.748145 30.103456 0.401903
2012-02-17 08:12:39 51°20.166 3°6.239 2.5435 2.748041 30.101271 0.244731
2012-02-17 08:12:43 51°20.174 3°6.26 2.5461 2.747628 30.09722 0.496206
2012-02-17 08:12:49 51°20.186 3°6.292 2.5466 2.747421 30.094726 0.213297
2012-02-17 08:12:54 51°20.196 3°6.319 2.5471 2.747214 30.090358 0.464771
2012-02-17 08:12:59 51°20.206 3°6.345 2.5486 2.747214 30.090358 0.464771
2012-02-17 08:13:03 51°20.215 3°6.366 2.5464 2.747214 30.089421 0.276166
2012-02-17 08:13:08 51°20.225 3°6.392 2.5476 2.747007 30.08599 0.370468
2012-02-17 08:13:14 51°20.237 3°6.423 2.5485 2.746904 30.083807 0.621943
2012-02-17 08:13:19 51°20.248 3°6.449 2.5518 2.746697 30.082249 0.433337
2012-02-17 08:13:23 51°20.258 3°6.469 2.5533 2.746594 30.080066 0.684811
2012-02-17 08:13:28 51°20.269 3°6.494 2.5544 2.746594 30.080066 0.684811
2012-02-17 08:13:34 51°20.283 3°6.523 2.5582 2.746491 30.078819 0.496206
2012-02-17 08:13:39 51°20.294 3°6.548 2.5527 2.746284 30.075389 0.716245
2012-02-17 08:13:43 51°20.304 3°6.567 2.5552 2.746387 30.076636 0.339034
2012-02-17 08:13:48 51°20.316 3°6.592 2.5564 2.74618 30.074142 0.559074
2012-02-17 08:13:54 51°20.33 3°6.622 2.5637 2.746284 30.074453 0.52764
2012-02-17 08:13:59 51°20.341 3°6.648 2.5627 2.746284 30.074453 0.52764
2012-02-17 08:14:03 51°20.35 3°6.668 2.5644 2.746284 30.073517 0.401903
2012-02-17 08:14:08 51°20.361 3°6.694 2.5656 2.746387 30.072891 0.559074
2012-02-17 08:14:14 51°20.373 3°6.726 2.5678 2.746387 30.071955 0.496206
2012-02-17 08:14:19 51°20.384 3°6.753 2.5667 2.746491 30.072266 0.370468
2012-02-17 08:14:23 51°20.391 3°6.774 2.5754 2.746697 30.071016 0.52764
2012-02-17 08:14:28 51°20.402 3°6.801 2.5717 2.746697 30.071016 0.52764
2012-02-17 08:14:34 51°20.414 3°6.832 2.576 2.746801 30.07039 0.401903
2012-02-17 08:14:39 51°20.424 3°6.859 2.5795 2.746904 30.069765 0.559074
2012-02-17 08:14:43 51°20.432 3°6.88 2.5804 2.747317 30.073815 0.433337
2012-02-17 08:14:49 51°20.444 3°6.914 2.5838 2.747524 30.074436 0.464771
2012-02-17 08:14:54 51°20.454 3°6.941 2.5845 2.747731 30.074122 0.401903
2012-02-17 08:14:59 51°20.464 3°6.968 2.5897 2.747731 30.074122 0.401903
2012-02-17 08:15:03 51°20.472 3°6.99 2.5895 2.748144 30.077235 0.433337
2012-02-17 08:15:08 51°20.482 3°7.017 2.5902 2.748351 30.07692 0.464771
2012-02-17 08:15:14 51°20.494 3°7.051 2.5921 2.748661 30.076916 0.52764
2012-02-17 08:15:19 51°20.505 3°7.077 2.5918 2.749075 30.080964 0.401903
2012-02-17 08:15:23 51°20.512 3°7.099 2.5955 2.749488 30.084077 0.684811
2012-02-17 08:15:28 51°20.523 3°7.125 2.5995 2.749488 30.084077 0.684811
2012-02-17 08:15:34 51°20.536 3°7.158 2.6047 2.749902 30.087189 0.621943
2012-02-17 08:15:39 51°20.547 3°7.184 2.6001 2.750315 30.088429 0.590508
2012-02-17 08:15:43 51°20.556 3°7.206 2.6035 2.750522 30.090921 0.590508
2012-02-17 08:15:49 51°20.568 3°7.238 2.6033 2.750935 30.094032 0.52764
2012-02-17 08:15:54 51°20.579 3°7.265 2.6071 2.751349 30.097143 0.464771
2012-02-17 08:15:59 51°20.589 3°7.293 2.6113 2.751349 30.097143 0.464771
2012-02-17 08:16:03 51°20.596 3°7.315 2.6048 2.751659 30.098073 0.559074
2012-02-17 08:16:08 51°20.606 3°7.343 2.608 2.751969 30.099002 0.590508
2012-02-17 08:16:14 51°20.617 3°7.377 2.6099 2.752279 30.100867 0.621943
2012-02-17 08:16:19 51°20.625 3°7.405 2.6143 2.752589 30.102732 0.496206
2012-02-17 08:16:23 51°20.631 3°7.428 2.6139 2.753003 30.105842 0.621943
2012-02-17 08:16:28 51°20.641 3°7.456 2.6169 2.753003 30.105842 0.621943
2012-02-17 08:16:34 51°20.652 3°7.489 2.6198 2.753313 30.10677 0.464771
2012-02-17 08:16:39 51°20.661 3°7.518 2.6193 2.753726 30.111751 0.653377
2012-02-17 08:16:43 51°20.668 3°7.541 2.6254 2.754036 30.113615 0.496206
2012-02-17 08:16:49 51°20.679 3°7.575 2.6257 2.754243 30.115169 0.590508
2012-02-17 08:16:54 51°20.687 3°7.604 2.6277 2.754863 30.120768 0.590508
2012-02-17 08:16:59 51°20.696 3°7.632 2.6378 2.754863 30.120768 0.590508
2012-02-17 08:17:03 51°20.702 3°7.656 2.63 2.755277 30.123876 0.621943
2012-02-17 08:17:08 51°20.711 3°7.684 2.6378 2.755794 30.128229 0.621943
2012-02-17 08:17:14 51°20.721 3°7.719 2.6356 2.75631 30.132582 0.52764
2012-02-17 08:17:19 51°20.731 3°7.748 2.636 2.757034 30.139424 0.433337
2012-02-17 08:17:23 51°20.739 3°7.77 2.6364 2.757448 30.141594 0.496206
2012-02-17 08:17:29 51°20.75 3°7.805 2.6398 2.757448 30.141594 0.496206
2012-02-17 08:17:34 51°20.759 3°7.833 2.6367 2.757964 30.14501 0.810548
2012-02-17 08:17:39 51°20.769 3°7.861 2.6392 2.758585 30.149669 0.464771
2012-02-17 08:17:43 51°20.776 3°7.883 2.6445 2.758998 30.152775 0.433337
2012-02-17 08:17:49 51°20.787 3°7.918 2.6425 2.759515 30.156189 0.3076
2012-02-17 08:17:54 51°20.796 3°7.946 2.6376 2.759825 30.158986 0.433337
2012-02-17 08:17:59 51°20.806 3°7.974 2.6389 2.759825 30.158986 0.433337
2012-02-17 08:18:03 51°20.812 3°7.997 2.6375 2.759928 30.16023 0.370468
2012-02-17 08:18:08 51°20.822 3°8.025 2.6386 2.760239 30.163027 0.08756
2012-02-17 08:18:14 51°20.833 3°8.06 2.6381 2.760135 30.15991 0.276166
2012-02-17 08:18:19 51°20.843 3°8.087 2.6375 2.760445 30.160835 0.181863
2012-02-17 08:18:23 51°20.851 3°8.11 2.6368 2.760445 30.161771 0.276166
2012-02-17 08:18:28 51°20.86 3°8.138 2.6382 2.760445 30.161771 0.276166
2012-02-17 08:18:34 51°20.872 3°8.171 2.6401 2.760652 30.165196 0.276166
2012-02-17 08:18:39 51°20.882 3°8.199 2.6358 2.760549 30.163951 0.3076
2012-02-17 08:18:43 51°20.891 3°8.221 2.6369 2.760549 30.163951 0.244731
2012-02-17 08:18:49 51°20.903 3°8.253 2.6409 2.760549 30.164888 0.3076
2012-02-17 08:18:54 51°20.913 3°8.281 2.6456 2.760445 30.163643 0.370468
2012-02-17 08:18:59 51°20.923 3°8.309 2.6396 2.760445 30.163643 0.370468
2012-02-17 08:19:03 51°20.931 3°8.33 2.6439 2.760549 30.164888 0.08756
2012-02-17 08:19:08 51°20.94 3°8.359 2.6347 2.760549 30.163015 0.401903
2012-02-17 08:19:14 51°20.952 3°8.392 2.6443 2.760445 30.163643 0.401903
2012-02-17 08:19:19 51°20.96 3°8.42 2.6445 2.760445 30.162707 0.244731
2012-02-17 08:19:23 51°20.968 3°8.441 2.6369 2.760549 30.163015 0.370468
2012-02-17 08:19:29 51°20.977 3°8.473 2.637 2.760549 30.163015 0.370468
2012-02-17 08:19:34 51°20.986 3°8.498 2.6387 2.760652 30.162387 0.3076
2012-02-17 08:19:39 51°20.994 3°8.522 2.6403 2.760652 30.162387 0.3076
2012-02-17 08:19:43 51°20.999 3°8.54 2.6457 2.760859 30.164875 0.276166
2012-02-17 08:19:49 51°21.007 3°8.565 2.6419 2.760962 30.165184 0.496206
2012-02-17 08:19:54 51°21.013 3°8.585 2.6401 2.761066 30.1683 0.339034
2012-02-17 08:19:59 51°21.019 3°8.603 2.6422 2.761066 30.1683 0.339034
2012-02-17 08:20:03 51°21.023 3°8.617 2.6443 2.760859 30.165812 0.433337
2012-02-17 08:20:08 51°21.029 3°8.634 2.6461 2.760755 30.165504 0.74768
2012-02-17 08:20:14 51°21.035 3°8.651 2.6447 2.760755 30.164567 0.52764
2012-02-17 08:20:19 51°21.041 3°8.666 2.6428 2.760962 30.167056 0.496206
2012-02-17 08:20:23 51°21.046 3°8.677 2.6449 2.761169 30.168608 0.590508
2012-02-17 08:20:28 51°21.052 3°8.688 2.6484 2.761169 30.168608 0.590508
2012-02-17 08:20:34 51°21.059 3°8.701 2.6481 2.761479 30.172341 0.590508
2012-02-17 08:20:39 51°21.065 3°8.71 2.6481 2.761686 30.175766 0.590508
2012-02-17 08:20:43 51°21.07 3°8.717 2.6485 2.761996 30.178562 0.52764
2012-02-17 08:20:49 51°21.077 3°8.726 2.6507 2.762306 30.182295 0.496206
2012-02-17 08:20:54 51°21.083 3°8.733 2.6519 2.762616 30.186965 0.590508
2012-02-17 08:20:59 51°21.089 3°8.739 2.6515 2.762616 30.186965 0.590508
2012-02-17 08:21:03 51°21.093 3°8.744 2.6517 2.762823 30.188517 0.559074
2012-02-17 08:21:08 51°21.099 3°8.748 2.6493 2.763133 30.19225 0.684811
2012-02-17 08:21:14 51°21.105 3°8.754 2.6496 2.763443 30.195046 0.716245
2012-02-17 08:21:19 51°21.111 3°8.758 2.6503 2.76365 30.198472 0.433337
2012-02-17 08:21:23 51°21.115 3°8.761 2.6532 2.764167 30.203756 0.339034
2012-02-17 08:21:28 51°21.12 3°8.765 2.6532 2.764167 30.203756 0.339034
2012-02-17 08:21:34 51°21.127 3°8.77 2.6561 2.761789 30.172328 0.52764
2012-02-17 08:21:39 51°21.132 3°8.774 2.6556 2.761479 30.168596 0.74768
2012-02-17 08:21:43 51°21.136 3°8.776 2.6551 2.762513 30.181974 0.653377
2012-02-17 08:21:49 51°21.142 3°8.781 2.6537 2.765201 30.214325 0.590508
2012-02-17 08:21:54 51°21.147 3°8.784 2.6533 2.765511 30.217121 0.621943
2012-02-17 08:21:59 51°21.152 3°8.787 2.6547 2.765511 30.217121 0.621943
2012-02-17 08:22:03 51°21.156 3°8.79 2.6564 2.765717 30.219609 0.590508
2012-02-17 08:22:08 51°21.16 3°8.793 2.657 2.765924 30.222098 0.590508
2012-02-17 08:22:14 51°21.166 3°8.796 2.6594 2.766028 30.223343 0.621943
2012-02-17 08:22:19 51°21.171 3°8.798 2.6605 2.766338 30.227076 0.716245
2012-02-17 08:22:23 51°21.174 3°8.8 2.6594 2.766648 30.230809 0.496206
2012-02-17 08:22:28 51°21.178 3°8.803 2.6613 2.766648 30.230809 0.496206
2012-02-17 08:22:34 51°21.183 3°8.805 2.659 2.766855 30.233298 0.621943
2012-02-17 08:22:39 51°21.187 3°8.807 2.6591 2.767061 30.234849 0.590508
2012-02-17 08:22:43 51°21.19 3°8.809 2.6604 2.767165 30.234217 0.433337
2012-02-17 08:22:49 51°21.194 3°8.811 2.6596 2.767475 30.23795 0.496206
2012-02-17 08:22:54 51°21.198 3°8.812 2.6614 2.767682 30.2395 0.52764
2012-02-17 08:22:59 51°21.202 3°8.814 2.6592 2.767682 30.2395 0.52764
2012-02-17 08:23:03 51°21.205 3°8.815 2.6609 2.767888 30.241989 0.716245
2012-02-17 08:23:08 51°21.208 3°8.817 2.6642 2.768095 30.244478 0.370468
2012-02-17 08:23:14 51°21.213 3°8.818 2.6648 2.768405 30.247272 0.590508
2012-02-17 08:23:19 51°21.216 3°8.819 2.6625 2.768405 30.248211 0.653377
2012-02-17 08:23:23 51°21.218 3°8.819 2.662 2.768715 30.251005 0.496206
2012-02-17 08:23:28 51°21.222 3°8.82 2.6642 2.768715 30.251005 0.496206
2012-02-17 08:23:34 51°21.225 3°8.821 2.6656 2.768819 30.25225 0.433337
2012-02-17 08:23:39 51°21.228 3°8.822 2.6652 2.768922 30.254433 0.496206
2012-02-17 08:23:43 51°21.231 3°8.822 2.6654 2.769129 30.255044 0.653377
2012-02-17 08:23:49 51°21.234 3°8.823 2.6656 2.769336 30.256594 0.590508
2012-02-17 08:23:54 51°21.237 3°8.823 2.6676 2.769439 30.257838 0.52764
2012-02-17 08:23:59 51°21.239 3°8.824 2.6676 2.769439 30.257838 0.52764
2012-02-17 08:24:03 51°21.241 3°8.824 2.6684 2.769542 30.259083 0.559074
2012-02-17 08:24:08 51°21.244 3°8.825 2.6689 2.769749 30.261572 0.559074
2012-02-17 08:24:14 51°21.247 3°8.825 2.6692 2.769956 30.263121 0.74768
2012-02-17 08:24:19 51°21.249 3°8.824 2.6683 2.769956 30.263121 0.590508
2012-02-17 08:24:23 51°21.252 3°8.824 2.6673 2.770163 30.264671 0.559074
2012-02-17 08:24:28 51°21.254 3°8.823 2.6673 2.770163 30.264671 0.559074
2012-02-17 08:24:34 51°21.256 3°8.82 2.6687 2.770473 30.267465 0.559074
2012-02-17 08:24:39 51°21.258 3°8.816 2.6702 2.770576 30.268709 0.559074
2012-02-17 08:24:43 51°21.26 3°8.812 2.67 2.770783 30.26932 0.433337
2012-02-17 08:24:49 51°21.262 3°8.803 2.6685 2.770886 30.271503 0.653377
2012-02-17 08:24:54 51°21.264 3°8.794 2.6704 2.77099 30.272748 0.684811
2012-02-17 08:24:59 51°21.266 3°8.783 2.6701 2.77099 30.272748 0.684811
2012-02-17 08:25:03 51°21.268 3°8.774 2.6724 2.771196 30.273358 0.496206
2012-02-17 08:25:08 51°21.271 3°8.761 2.6714 2.771196 30.275236 0.779114
2012-02-17 08:25:14 51°21.275 3°8.743 2.6729 2.7713 30.276481 0.590508
2012-02-17 08:25:19 51°21.28 3°8.728 2.6728 2.771506 30.27803 0.936285
2012-02-17 08:25:23 51°21.283 3°8.715 2.6715 2.77161 30.278335 0.716245
2012-02-17 08:25:28 51°21.288 3°8.698 2.674 2.77161 30.278335 0.716245
2012-02-17 08:25:34 51°21.295 3°8.677 2.677 2.771817 30.279884 0.559074
2012-02-17 08:25:39 51°21.301 3°8.659 2.677 2.77192 30.281128 0.716245